GFSSGP_sfc_thetae_000.txt.gz
Theta_e
312 303 301 300 292 288 285 287 290 294 309 314 316 311 312 314 309 301 328 328 330 332 335 339 345 347 349 349 348 349 350 348 347 346 344 343 342 342 343 339 336 335 335 335 338 339 341 343 342
311 304 298 293 287 283 286 291 300 302 314 316 317 316 315 315 323 324 321 327 332 333 335 339 345 346 347 348 349 350 350 348 347 346 344 343 341 342 341 338 335 334 333 335 337 336 339 340 339
304 299 294 289 285 284 287 290 305 310 313 310 315 319 318 316 327 327 327 329 334 333 334 339 343 343 345 345 346 347 348 348 348 345 344 343 342 341 341 337 332 333 332 334 336 338 338 340 337
300 296 292 288 283 287 290 293 308 308 309 315 316 313 319 324 328 329 329 333 330 328 330 338 340 342 344 343 343 344 344 345 345 343 343 342 341 340 339 336 334 335 335 336 337 338 340 339 337
294 292 287 285 285 290 294 300 302 304 306 307 311 310 314 324 330 329 329 330 327 328 330 334 338 341 343 342 342 342 342 343 344 344 343 342 340 338 332 333 335 334 336 335 335 334 333 334 335
293 290 284 282 284 289 291 295 300 303 304 308 310 311 312 326 327 328 330 327 330 329 331 332 338 339 340 341 340 340 340 340 341 341 342 340 339 337 336 334 334 334 335 335 334 334 333 333 333
290 287 282 283 285 287 290 292 292 294 297 301 313 309 314 321 328 329 329 327 328 330 329 329 330 333 335 335 336 337 338 339 338 338 338 337 336 335 333 332 332 331 331 330 330 330 331 332 331
290 289 283 282 285 285 290 292 292 293 296 307 309 310 310 321 327 329 330 329 327 328 328 326 326 326 325 326 333 334 336 337 336 335 333 333 333 332 330 327 328 329 329 329 328 327 327 326 325
290 286 283 284 286 288 290 293 292 295 301 297 306 310 311 325 325 325 322 324 324 329 326 325 325 324 321 321 328 333 335 336 335 333 332 327 322 320 319 325 327 328 327 326 326 325 324 322 320
290 285 287 290 290 293 290 290 291 293 298 304 306 311 318 322 321 323 322 323 324 325 326 325 325 323 321 324 324 324 327 328 329 329 325 322 320 318 321 323 326 325 325 324 324 321 319 314 311
293 289 292 293 292 291 291 293 293 293 293 303 304 309 317 319 317 321 322 324 324 324 326 327 325 325 323 322 323 321 322 323 325 326 324 321 320 317 318 316 316 315 320 313 315 313 312 311 311
292 293 293 293 294 293 291 295 293 291 295 302 307 312 317 319 318 317 318 320 319 322 326 326 325 325 323 323 323 321 321 322 322 322 322 319 316 314 315 315 315 315 314 312 312 312 313 312 313
294 294 295 296 296 294 296 293 294 294 298 297 305 313 317 319 319 315 317 317 315 318 318 319 320 321 319 320 319 320 321 322 322 321 320 318 316 314 314 315 314 314 313 313 312 309 307 307 308
297 295 295 296 296 296 294 294 297 295 294 295 305 307 314 317 319 311 312 312 313 312 313 316 317 319 316 312 312 314 315 318 318 317 318 317 317 315 314 314 314 313 312 310 307 304 303 302 304
297 294 294 295 295 294 294 291 292 295 294 295 296 305 308 313 312 311 309 311 312 309 309 313 316 317 315 313 312 310 311 311 310 312 313 313 315 315 314 313 313 312 310 306 305 303 302 300 301
292 291 287 294 294 294 292 288 295 293 293 296 294 298 304 306 305 303 303 306 306 305 308 312 316 315 313 313 312 311 310 308 307 308 310 311 313 311 309 309 309 310 306 305 304 297 297 297 297
288 284 285 290 295 295 290 289 294 294 296 295 293 294 297 297 297 299 302 303 303 304 307 309 309 312 310 310 310 310 309 308 306 305 307 309 310 309 305 305 305 305 301 301 301 296 297 296 296
283 283 284 284 291 294 291 290 294 296 295 294 291 292 294 295 296 299 299 298 299 302 305 305 306 309 307 303 302 300 300 300 303 302 303 308 308 308 306 305 304 303 300 299 297 297 296 296 296
289 286 286 287 292 293 290 290 292 291 291 291 290 291 295 296 296 296 297 299 300 301 301 300 301 302 300 299 299 298 299 298 299 300 302 303 307 308 307 305 303 303 301 301 298 297 296 295 295
289 287 286 290 293 291 291 290 290 293 291 291 292 294 295 295 296 297 297 297 299 300 300 299 299 299 298 298 297 297 297 297 297 298 299 300 302 305 307 305 303 302 303 299 298 297 295 295 294
288 286 286 288 291 290 289 287 290 292 294 294 294 294 295 295 296 296 297 296 296 298 298 299 299 299 299 299 298 297 297 298 298 298 298 300 300 303 305 306 305 302 302 302 300 298 296 296 293
286 290 290 289 288 284 288 282 288 290 291 293 293 293 292 294 296 297 297 296 296 297 297 298 299 299 300 300 298 297 296 296 299 299 300 301 300 300 301 305 304 302 302 301 300 300 297 294 292
291 294 291 290 287 286 287 283 287 290 289 289 291 293 292 295 296 295 296 296 297 297 297 299 301 301 300 299 299 298 297 298 299 300 299 300 300 298 298 300 301 301 299 298 298 296 295 294 292
296 292 290 289 287 281 285 284 284 287 289 291 293 293 295 296 296 298 297 299 299 298 299 299 299 299 300 299 298 296 294 295 296 297 297 297 296 295 294 296 296 294 293 292 292 293 292 291 292
293 286 278 278 277 278 287 283 285 291 292 293 293 293 295 295 295 295 296 297 298 298 298 299 298 298 298 298 294 294 294 294 295 296 296 294 293 289 290 291 292 292 293 294 295 294 294 294 293
290 288 279 275 274 278 286 282 287 294 295 295 295 295 295 295 297 297 297 296 297 297 297 297 297 297 298 296 293 294 295 295 295 295 293 291 289 289 292 292 293 293 294 295 295 294 295 295 294
290 286 290 282 275 276 282 287 292 293 295 296 293 293 293 294 295 296 299 299 298 299 299 297 297 297 298 295 292 293 294 295 294 293 290 289 289 292 292 293 293 294 296 296 296 294 293 293 292
292 293 284 282 273 275 281 282 284 290 292 293 291 292 293 295 296 298 299 299 300 298 298 298 297 297 297 293 293 294 293 294 293 290 289 289 290 292 292 293 292 293 292 293 294 293 293 292 292
290 287 288 287 283 275 274 281 290 290 291 291 291 294 294 295 295 296 297 298 298 298 298 297 296 296 296 291 292 291 292 292 290 288 288 289 291 291 290 291 291 291 292 292 291 291 290 289 289
291 289 287 279 279 280 277 281 292 292 293 293 293 295 296 296 296 296 297 298 297 297 298 297 295 296 293 292 291 291 289 287 286 287 288 289 289 290 290 290 291 291 289 289 289 288 287 286 285

GFSSGP_sfc_thetae_003.txt.gz
Theta_e
316 308 309 308 300 298 293 295 297 309 313 319 320 316 317 320 312 309 332 332 338 342 345 346 346 348 348 348 349 348 349 348 347 346 345 344 344 344 342 340 337 336 336 338 339 339 342 345 343
313 305 305 302 296 294 296 299 300 313 320 321 321 321 320 317 329 328 329 333 338 341 343 345 345 347 349 349 349 350 350 348 347 345 344 343 343 343 343 340 335 335 335 337 339 341 340 340 339
309 303 303 298 294 293 299 303 314 318 318 319 320 324 323 322 330 328 331 333 337 339 342 344 344 345 346 348 349 350 350 350 347 346 344 344 343 343 342 338 334 335 336 337 339 340 341 340 341
306 303 300 299 294 295 302 310 319 316 315 321 322 317 324 331 332 335 330 333 334 336 341 342 341 344 345 345 345 345 346 346 345 344 344 344 343 342 339 337 337 336 337 338 337 336 335 336 338
301 300 297 296 296 300 303 307 315 311 311 316 317 317 320 330 335 330 332 334 331 334 339 341 339 342 343 343 343 342 343 343 344 343 343 343 341 339 336 334 336 336 337 337 337 335 334 333 333
300 299 296 295 295 295 302 306 309 308 312 315 318 318 320 331 330 331 333 332 332 332 337 339 340 341 341 342 341 341 341 341 341 341 341 341 339 338 337 336 334 333 332 333 333 334 336 335 335
297 295 291 291 292 294 297 298 303 307 308 307 318 314 321 328 332 333 333 331 333 334 335 337 337 337 337 336 337 337 339 339 338 338 337 336 336 335 334 333 332 331 331 331 330 330 330 330 330
297 297 291 291 292 292 297 299 300 302 304 313 317 312 318 328 333 333 332 331 332 334 335 335 335 333 334 336 334 335 336 337 336 335 333 332 332 330 330 327 329 330 330 329 328 327 327 325 326
298 295 291 291 293 295 298 298 300 303 309 305 310 319 319 332 333 332 332 330 331 332 333 334 332 331 330 332 334 334 335 336 335 333 331 331 334 331 328 327 327 327 327 327 325 324 322 320 321
297 294 293 296 296 297 298 298 299 301 304 307 312 316 325 330 331 330 330 328 329 330 332 332 333 331 329 328 333 335 334 338 339 337 335 334 333 331 329 328 326 325 325 324 323 322 320 319 322
298 295 297 298 298 299 299 300 300 300 301 306 308 316 325 329 330 330 331 331 331 332 333 331 333 333 331 328 333 333 333 336 337 337 336 334 333 333 332 330 329 329 325 326 324 326 327 326 326
298 298 300 300 299 299 299 301 299 299 302 304 311 321 326 326 327 330 331 332 332 333 334 335 334 334 335 335 333 333 331 332 334 335 335 334 332 331 330 328 328 328 329 327 327 328 324 323 323
300 299 300 301 299 300 301 300 300 300 304 303 309 320 325 326 326 330 332 333 332 331 334 335 336 335 337 334 334 333 332 332 334 334 335 332 331 330 328 327 327 327 328 327 327 323 316 314 314
302 301 300 301 301 301 300 300 300 302 302 302 306 315 324 326 327 325 324 327 327 329 331 333 331 333 332 329 330 330 330 332 332 333 334 333 331 330 328 328 327 327 327 327 324 316 313 313 313
300 298 298 299 299 299 299 298 298 302 301 301 301 309 319 325 327 326 326 325 325 327 327 327 329 329 329 326 324 324 324 324 326 328 329 329 328 328 327 327 327 327 327 325 318 314 313 312 311
296 296 294 298 300 300 300 296 302 301 301 303 302 300 310 319 323 323 321 318 321 322 323 324 324 326 327 325 325 324 324 323 322 321 322 323 323 324 325 324 325 326 326 323 318 315 310 308 309
294 290 291 295 298 299 300 297 302 303 301 302 302 300 303 311 311 310 311 313 317 319 320 322 325 325 325 323 322 323 322 322 321 320 319 320 321 322 322 321 321 322 321 320 317 313 310 307 308
290 290 292 292 297 299 297 297 300 299 297 299 299 300 301 305 306 306 308 310 313 317 318 321 321 321 321 319 316 314 314 314 314 315 315 316 317 320 320 320 319 319 316 315 313 311 309 307 308
293 292 292 294 296 297 295 296 297 298 299 298 299 300 301 303 304 305 306 308 310 313 316 317 316 316 314 311 311 311 310 310 311 311 311 311 312 314 316 316 317 317 314 315 314 311 308 307 307
294 292 291 294 296 297 296 296 297 298 298 299 301 301 303 303 304 304 306 309 311 313 314 311 309 308 308 309 309 309 308 309 308 309 310 311 311 311 311 313 313 314 313 314 314 311 309 307 308
293 292 291 292 295 296 294 295 296 298 299 300 301 302 302 304 304 304 305 308 308 308 307 306 307 309 309 308 309 309 309 309 308 307 307 309 310 310 310 310 310 312 313 311 313 313 310 307 308
291 294 294 293 293 291 294 289 295 295 296 298 300 302 303 304 304 305 305 306 306 307 309 310 309 308 308 308 306 305 303 302 305 305 306 306 308 309 308 307 308 309 310 310 311 312 312 310 306
294 296 294 294 293 292 293 291 293 295 295 296 299 300 302 302 303 303 304 306 306 308 308 308 308 307 307 305 305 305 305 305 305 304 304 305 306 307 305 304 305 305 306 307 308 308 308 307 306
298 295 293 293 292 288 290 289 290 294 294 296 299 301 301 302 302 303 305 306 306 307 307 307 307 307 308 306 304 304 304 304 304 304 303 303 303 303 301 302 302 302 302 302 302 302 302 301 301
297 291 287 287 287 286 290 289 291 296 296 297 298 299 301 303 303 303 303 304 305 306 306 306 306 306 307 306 303 304 305 305 303 302 302 301 300 301 300 300 301 301 301 301 301 301 300 300 299
294 292 287 280 282 285 289 286 291 297 299 299 299 299 300 301 303 303 303 304 305 305 306 305 305 305 306 306 302 303 305 303 301 301 301 299 298 299 300 300 301 302 302 301 301 302 300 298 297
294 291 293 286 279 284 287 291 295 297 298 299 297 299 300 301 302 303 304 304 305 305 305 305 304 304 305 305 302 303 302 301 300 300 298 297 298 299 299 300 300 300 300 299 299 298 297 296 295
296 296 289 289 281 279 286 287 290 293 295 296 296 298 300 302 303 304 305 305 305 305 305 305 305 303 304 304 301 300 300 299 298 296 296 296 298 298 298 297 296 296 296 296 295 295 296 295 295
294 292 291 291 288 283 280 286 295 295 296 297 298 299 300 302 303 304 304 304 304 304 304 304 304 303 303 300 299 299 298 295 294 295 295 296 297 296 295 295 295 295 294 293 293 293 293 292 292
295 292 291 286 283 287 284 285 296 298 298 298 298 299 301 302 303 303 303 304 304 304 303 303 303 302 299 299 299 298 295 293 293 294 295 296 296 295 295 294 294 293 293 294 292 291 290 289 289

GFSSGP_sfc_thetae_006.txt.gz
Theta_e
317 316 319 315 305 308 303 304 314 316 317 323 323 319 320 324 317 314 337 337 335 341 347 348 347 350 350 350 349 349 348 348 347 346 345 343 344 344 343 340 338 337 337 338 341 341 341 343 342
317 312 313 312 303 299 302 309 310 316 322 324 323 322 319 318 329 331 332 335 336 341 346 347 346 348 350 349 349 349 348 348 347 345 344 344 344 344 342 337 336 337 338 339 340 340 342 341 340
314 312 310 308 306 300 302 309 317 320 322 322 320 325 323 320 328 329 335 333 335 339 342 346 345 346 348 349 350 349 349 347 347 346 345 345 344 342 340 337 336 337 338 339 340 339 337 337 340
313 311 312 304 301 305 308 314 318 318 322 323 319 317 328 334 330 334 335 333 331 334 338 341 343 344 345 345 345 345 345 345 344 343 343 343 342 340 336 336 337 336 338 338 338 337 335 334 334
313 311 305 303 303 308 313 318 319 315 318 320 320 316 321 335 339 336 335 333 330 331 335 336 341 342 342 343 342 342 343 343 343 342 342 341 340 339 337 337 337 337 337 335 335 336 337 336 336
308 312 302 300 303 308 313 317 315 312 316 318 317 317 321 336 334 335 336 332 331 332 336 336 339 340 341 341 340 340 341 340 340 340 341 340 338 338 337 335 334 333 332 332 332 332 333 332 332
307 307 302 301 301 303 307 312 311 311 312 312 318 311 324 332 335 335 333 332 332 332 334 336 337 337 337 338 338 339 340 339 338 337 336 337 336 335 334 333 331 331 331 330 329 329 329 329 328
309 306 300 301 299 298 303 305 309 308 309 321 320 310 315 329 336 336 333 331 332 334 334 336 338 337 339 338 335 336 337 337 335 334 332 332 333 331 329 327 329 329 328 328 327 326 325 325 326
307 300 297 298 299 300 304 303 306 311 312 313 316 317 324 334 337 335 332 330 331 333 336 338 337 337 339 337 335 333 335 336 335 334 331 332 338 336 332 327 326 327 326 326 324 322 320 319 322
306 302 299 301 303 303 304 304 305 306 306 307 312 320 329 335 334 332 331 328 331 333 336 338 340 338 338 334 339 339 337 340 341 340 340 338 338 337 332 330 326 324 323 322 322 322 323 323 324
305 301 303 302 304 305 304 303 305 304 303 307 308 316 328 331 332 331 330 328 331 335 336 338 340 341 338 336 338 336 337 337 339 341 341 339 338 337 335 334 332 332 327 328 327 327 326 327 326
302 304 304 304 304 305 303 306 304 305 305 309 312 318 325 328 326 326 326 328 330 333 336 338 339 340 341 336 335 337 334 335 335 336 340 338 335 335 334 331 329 328 328 329 327 327 327 323 320
304 305 306 305 305 306 305 304 305 306 309 309 313 320 322 323 324 326 327 327 329 332 337 340 341 341 338 338 336 336 336 334 335 335 335 337 333 332 330 329 327 326 327 326 326 325 322 317 315
306 306 306 306 306 306 304 305 306 307 309 309 310 316 321 323 323 325 327 328 331 334 336 341 341 340 335 334 336 335 335 332 332 330 330 334 334 330 327 325 323 323 323 324 324 323 320 316 315
306 303 305 305 305 304 304 303 303 307 308 307 308 312 319 322 322 323 325 328 330 332 334 339 339 335 333 330 331 330 329 328 327 326 328 329 329 327 327 323 323 323 323 325 326 324 321 317 314
303 303 299 303 305 306 306 300 306 309 308 308 309 309 314 321 323 324 326 329 332 331 333 337 333 330 329 329 330 329 329 330 327 327 326 327 327 327 326 323 322 323 324 322 322 321 319 317 314
301 297 296 299 304 304 304 301 307 308 306 309 309 310 310 317 323 327 329 330 328 328 331 334 332 325 324 327 327 328 328 325 323 323 322 323 323 324 324 322 322 324 322 321 320 320 319 316 314
295 296 298 297 301 304 302 302 304 306 305 307 309 309 309 313 320 320 318 319 322 327 331 331 326 325 326 328 325 322 322 323 321 319 318 318 318 319 320 320 321 322 321 320 319 319 318 316 315
298 297 296 298 302 302 301 301 302 306 307 307 307 307 309 313 314 315 315 317 320 326 326 324 323 319 320 319 316 316 316 317 318 317 318 318 317 317 317 317 318 319 318 318 320 318 317 316 316
298 296 296 299 301 302 301 301 303 305 305 307 308 308 310 311 312 313 316 318 319 321 320 317 315 316 316 317 317 317 316 316 316 316 316 316 314 313 313 314 314 315 314 315 316 317 315 316 316
298 296 297 297 300 302 301 300 300 303 306 307 308 309 310 310 310 311 313 315 316 315 316 315 315 315 315 315 315 316 317 315 314 313 312 311 312 311 312 312 312 313 313 311 313 314 313 311 314
296 299 299 298 298 296 301 294 299 301 302 304 306 308 308 309 310 310 311 313 314 316 316 315 315 314 313 314 313 313 311 309 310 311 311 310 310 310 310 310 311 311 311 310 310 310 311 311 309
298 301 299 299 298 298 298 296 298 302 299 301 304 306 308 309 310 310 311 312 313 315 315 315 314 314 313 312 313 312 310 310 310 310 308 308 308 309 309 309 309 310 309 309 310 310 310 310 309
303 299 300 300 300 293 295 295 296 300 298 301 304 306 308 309 309 310 311 312 312 314 315 314 313 312 313 313 311 310 310 310 308 307 305 305 306 306 307 307 308 308 307 307 307 307 306 306 306
303 298 294 291 292 291 295 294 296 299 302 303 304 306 308 310 310 309 309 310 312 312 312 311 311 310 311 311 309 309 309 309 307 306 304 303 303 304 306 306 306 306 306 305 307 306 304 300 299
299 298 293 283 288 290 295 291 296 302 304 304 305 306 307 307 309 309 309 310 311 311 312 312 310 309 309 308 308 308 309 309 306 305 304 302 303 304 305 305 305 305 305 305 305 302 300 300 300
298 296 298 291 286 290 294 296 300 302 302 303 303 304 305 306 307 308 309 310 311 311 309 311 310 309 309 309 310 309 309 306 304 303 303 302 303 303 303 304 303 301 301 301 300 298 296 297 296
301 301 294 295 285 281 289 291 293 298 300 301 302 303 305 307 308 309 309 309 309 311 312 312 312 310 310 309 308 307 305 304 302 302 301 302 302 303 301 300 299 299 299 299 298 297 295 295 295
299 297 296 295 293 286 284 289 300 299 300 300 303 304 305 307 307 308 309 310 310 311 311 310 310 309 308 307 306 304 303 301 301 301 300 301 301 300 299 298 298 298 296 295 295 294 295 294 293
300 297 296 291 285 291 289 289 301 302 302 302 303 304 306 307 308 308 309 309 309 309 309 308 307 306 304 303 302 302 301 301 300 300 300 299 299 299 299 298 296 296 296 295 293 293 294 293 292

GFSSGP_sfc_thetae_009.txt.gz
Theta_e
322 319 319 317 306 307 306 308 315 313 315 322 321 320 318 322 320 315 335 334 341 344 346 348 349 351 350 348 348 348 348 348 347 345 344 344 344 343 341 338 338 338 339 340 341 342 343 343 341
320 316 316 313 304 302 304 309 311 316 319 320 319 318 318 318 328 329 329 334 342 344 346 348 347 350 350 349 349 348 348 347 345 345 344 344 344 343 341 338 337 338 340 341 341 341 340 340 341
319 317 310 308 305 303 304 310 314 317 319 319 317 321 320 319 326 327 331 335 339 342 346 347 346 347 350 351 350 349 348 347 346 346 345 344 343 341 339 337 337 338 339 340 339 338 336 335 335
315 312 311 305 305 308 309 313 316 316 319 320 318 316 326 330 327 330 331 333 334 336 342 342 344 345 346 345 346 346 346 344 343 343 343 343 341 338 336 337 338 339 339 338 338 338 338 337 336
313 312 306 305 305 309 314 315 316 315 316 316 316 313 322 333 333 330 329 329 329 330 333 339 341 343 343 342 341 342 343 343 343 342 342 341 340 338 337 337 337 335 335 334 334 335 334 335 335
308 312 305 301 304 310 314 316 314 313 315 314 314 316 323 333 330 330 329 327 328 330 332 333 337 340 340 340 340 340 341 340 340 341 340 339 338 337 336 335 334 333 333 332 331 331 331 331 331
307 309 304 304 304 305 309 314 310 310 311 311 316 312 322 326 330 330 327 327 327 331 332 334 335 336 338 338 338 339 339 338 338 336 336 337 335 334 333 332 331 331 330 330 329 328 327 328 328
310 311 303 303 301 301 307 308 312 310 311 316 316 310 315 326 330 329 327 326 328 330 333 335 336 335 337 338 336 337 337 337 335 334 333 333 334 333 331 329 330 329 328 327 326 325 324 324 325
312 304 300 300 301 301 306 304 307 311 311 312 314 318 321 330 331 328 326 325 329 330 334 336 335 334 334 332 333 334 336 337 336 335 333 333 336 335 333 329 327 326 325 325 324 323 322 323 324
307 303 301 305 305 304 305 305 305 307 308 307 311 316 326 329 329 326 323 323 328 331 332 337 338 336 334 330 334 334 332 335 337 337 337 336 337 336 333 330 329 328 327 327 326 325 326 326 325
307 303 304 304 306 306 304 304 306 305 304 308 309 314 323 325 325 326 326 325 327 331 331 336 341 339 335 331 332 333 333 333 334 337 337 336 335 335 333 332 331 331 327 327 326 326 326 327 324
304 306 306 305 305 305 304 307 305 306 307 311 312 318 322 324 324 325 326 325 327 330 330 335 340 337 336 334 333 333 332 331 332 333 335 334 331 332 331 328 327 327 325 326 326 325 327 325 320
304 305 306 306 306 306 307 305 306 305 309 311 314 318 320 323 324 325 326 327 328 327 330 334 339 335 332 333 333 333 333 332 332 332 331 330 329 330 328 326 325 324 323 323 323 323 323 321 319
307 307 307 308 308 307 306 306 307 309 311 310 311 315 319 320 322 323 325 325 326 327 330 334 337 335 330 331 332 333 331 329 329 327 327 329 329 328 326 324 323 322 322 322 322 323 323 320 318
308 304 307 307 308 307 308 304 304 310 311 309 310 312 317 319 321 322 325 326 328 328 329 333 336 333 329 329 329 328 325 326 327 326 327 326 327 327 327 324 323 323 324 326 324 323 322 321 319
305 306 301 306 307 308 308 302 307 311 310 309 311 312 313 318 320 322 324 325 327 328 328 332 333 330 328 328 327 327 327 327 326 326 326 325 325 325 325 323 323 325 325 323 322 320 319 319 318
304 299 299 302 307 306 306 303 309 311 310 309 311 312 313 315 320 323 324 325 326 327 328 330 334 325 325 327 326 327 326 324 322 322 321 323 322 322 322 321 323 327 323 324 323 322 322 319 318
299 298 299 299 304 304 303 304 307 309 309 309 311 312 313 313 318 323 326 325 325 325 327 330 331 324 324 327 326 322 322 322 322 321 320 320 320 320 320 319 322 322 319 320 321 323 321 322 320
301 299 298 302 304 303 303 303 305 308 309 309 310 310 311 313 321 323 321 321 324 327 327 328 325 323 322 321 319 317 317 318 319 319 319 319 318 316 316 315 316 317 315 317 319 319 319 318 320
301 299 299 301 303 303 303 303 305 307 308 310 310 311 313 314 315 316 319 320 323 325 324 322 320 318 319 319 318 319 318 318 318 318 318 317 316 315 313 313 312 313 312 316 317 317 315 316 318
301 300 300 299 303 304 303 301 302 306 308 309 310 311 312 312 312 314 316 318 320 319 319 318 318 317 317 318 317 317 317 317 315 315 314 315 314 312 312 312 312 313 313 311 314 314 313 310 313
299 302 301 300 299 297 304 296 301 304 304 306 308 310 310 311 312 313 315 316 318 318 318 318 317 316 316 317 315 315 312 311 313 313 313 312 312 310 310 310 310 311 311 311 311 309 311 311 307
301 304 302 302 300 300 300 296 300 304 302 304 307 308 310 311 313 313 314 315 316 317 317 318 316 315 315 315 314 313 313 313 314 313 311 311 310 310 308 309 310 309 309 309 310 309 308 307 306
306 303 303 303 301 294 299 297 299 301 302 303 306 308 310 311 312 313 314 315 315 317 317 317 315 314 314 314 314 314 312 309 309 308 307 307 307 306 307 307 308 308 308 307 306 307 306 304 304
305 301 295 293 293 292 299 295 299 302 304 306 306 308 310 312 312 311 312 313 314 314 314 315 314 314 315 314 312 311 310 310 309 307 306 304 303 304 306 306 307 306 306 307 306 304 301 300 297
300 301 295 286 289 292 298 292 298 305 306 307 307 308 309 310 311 311 311 313 313 313 315 315 314 313 313 313 312 313 311 310 308 306 304 302 303 304 305 305 306 305 304 304 303 301 301 299 300
300 297 301 294 292 292 295 298 303 304 304 305 305 307 307 309 309 310 311 312 312 313 314 314 314 313 313 313 312 311 309 307 305 304 303 302 303 303 304 304 303 303 301 300 300 298 297 298 298
303 303 296 297 286 283 291 292 295 300 301 304 304 305 307 309 309 310 311 312 313 313 314 314 314 312 312 311 309 307 306 305 304 303 302 302 302 302 302 301 300 300 298 298 297 297 298 297 296
301 300 298 297 294 287 285 290 301 300 302 302 304 305 307 308 309 310 310 310 312 313 313 312 311 309 308 308 306 305 304 303 302 302 302 301 300 300 299 299 298 298 297 297 297 296 296 295 295
302 299 298 292 288 292 290 290 303 303 303 303 304 305 307 308 308 308 309 309 309 309 309 309 308 306 306 305 304 303 303 302 301 301 299 300 299 300 299 298 297 297 296 296 295 294 294 293 292

GFSSGP_sfc_thetae_012.txt.gz
Theta_e
320 316 317 313 303 302 299 307 314 313 314 318 320 317 316 320 319 311 331 337 343 342 344 347 349 351 350 350 350 350 349 348 348 347 347 345 345 343 341 340 340 341 341 342 342 342 342 341 342
315 317 314 309 300 297 302 310 309 313 316 316 318 317 317 315 325 324 328 339 342 344 346 347 348 349 350 350 350 350 348 347 347 346 345 345 344 342 340 338 339 340 340 340 339 339 337 336 336
318 316 307 304 301 297 302 310 313 314 316 317 315 322 319 317 323 324 333 339 345 344 345 346 346 348 350 350 350 349 348 347 347 347 345 345 343 339 338 338 339 340 339 338 339 339 338 337 337
314 311 307 300 299 306 308 312 313 313 317 318 318 315 321 326 324 327 333 336 337 340 341 341 342 345 346 347 347 347 346 345 344 345 344 342 340 338 338 339 338 337 336 336 336 335 335 335 336
314 308 299 301 304 309 313 314 314 313 314 314 316 316 319 325 326 327 328 330 329 334 337 339 340 343 344 344 343 344 344 343 343 342 341 340 339 338 337 336 335 334 333 333 332 332 333 333 333
305 306 298 299 304 309 312 314 315 315 315 312 314 317 320 326 324 325 325 326 327 331 333 333 340 341 341 341 341 341 341 341 341 340 339 338 337 336 335 334 333 332 331 331 330 329 329 330 330
304 301 298 303 303 306 310 314 310 310 311 311 316 314 320 323 325 324 324 324 327 328 328 331 333 336 338 338 338 339 339 339 338 337 337 337 336 335 334 332 331 330 329 328 327 326 326 326 328
307 303 299 304 301 302 307 310 312 310 309 315 316 311 313 323 326 324 323 323 326 330 331 333 333 335 334 334 336 337 337 337 336 335 335 335 335 335 333 333 329 328 326 326 325 324 324 325 325
309 300 300 301 302 301 306 304 308 311 310 312 316 316 323 325 325 323 321 322 325 329 333 333 332 333 336 333 334 336 338 337 335 335 334 332 334 333 331 330 330 328 327 327 326 326 326 325 325
305 301 301 304 304 303 304 304 305 306 307 307 313 321 327 326 324 321 319 320 324 328 330 335 334 333 331 328 332 336 335 336 335 335 335 335 334 333 331 331 330 330 330 329 329 328 328 327 322
306 301 304 304 305 305 304 304 306 305 303 307 308 313 323 324 323 322 320 321 325 329 330 336 338 335 334 332 330 332 332 332 335 338 333 335 332 335 331 330 330 328 328 327 326 326 324 323 320
302 305 305 304 305 304 303 305 303 305 306 310 312 316 322 320 321 322 322 322 325 327 328 336 336 335 334 333 332 333 331 330 331 331 333 331 329 330 327 325 323 322 321 321 322 320 322 322 318
304 304 305 305 304 305 306 304 305 305 309 311 314 318 320 321 322 324 325 323 325 326 328 333 336 334 336 332 334 333 332 331 330 329 330 329 327 327 326 324 323 322 321 320 319 318 319 319 317
306 305 304 305 306 306 304 305 307 307 309 309 311 315 318 321 322 323 324 324 325 327 330 335 335 333 331 331 330 331 329 329 328 327 325 327 326 325 324 322 322 321 320 320 318 317 318 318 317
307 303 305 306 307 305 306 303 303 309 310 308 308 311 316 318 320 321 323 325 326 326 328 333 334 332 330 330 329 329 324 324 325 325 325 324 324 323 323 322 321 321 322 321 319 318 317 316 317
303 304 299 305 307 307 306 299 305 309 308 307 309 309 312 317 319 322 324 325 327 330 325 331 332 330 329 330 326 326 327 325 324 325 324 324 323 322 321 320 320 322 322 320 318 317 316 315 314
302 297 300 302 307 306 305 301 306 310 309 308 310 311 311 313 318 321 323 324 325 324 328 329 333 328 326 327 325 325 325 323 322 320 321 321 321 321 319 318 319 320 318 317 317 315 315 314 313
296 297 299 298 303 303 301 302 307 309 309 309 309 310 311 311 315 321 322 325 326 327 327 330 331 325 325 327 325 322 320 321 321 321 318 319 319 317 316 314 316 317 313 312 313 313 312 312 312
301 299 298 302 304 301 301 302 305 308 309 310 312 312 312 316 320 320 322 323 326 328 325 324 323 323 322 321 319 317 316 318 318 318 318 317 316 315 313 312 311 311 310 310 310 309 307 308 309
301 299 299 302 303 301 303 301 305 306 307 309 309 310 313 313 314 317 320 322 322 322 322 320 319 318 318 317 317 317 317 316 316 318 316 316 315 313 311 311 310 309 308 307 308 308 306 305 306
301 299 300 299 302 304 301 300 301 305 307 308 310 311 312 311 312 314 316 318 319 319 318 317 316 316 316 317 316 315 315 314 313 312 312 313 313 312 310 309 309 308 307 305 305 306 304 303 304
298 303 301 299 298 294 302 292 299 302 303 306 307 309 309 310 312 313 315 316 316 317 318 317 317 316 316 316 314 312 311 310 312 314 312 311 311 310 308 307 307 307 307 305 305 305 304 303 300
300 304 301 301 298 298 299 295 299 302 300 303 306 308 309 311 312 312 313 314 316 317 317 317 317 315 316 315 314 312 313 311 310 310 309 308 308 307 306 306 305 305 304 305 305 303 303 302 299
306 303 303 302 300 294 297 297 295 299 301 303 306 308 310 311 312 312 314 315 315 318 318 317 315 314 315 315 314 311 309 309 308 307 305 303 303 303 304 305 304 305 304 304 303 302 299 298 298
304 301 295 293 294 292 299 295 298 303 304 305 306 307 310 311 312 312 312 312 314 315 316 316 315 313 314 313 312 312 310 309 306 304 302 301 300 301 301 303 303 302 302 303 302 301 300 299 297
301 299 295 286 288 291 298 291 296 304 306 307 307 308 309 310 311 311 313 312 313 314 315 315 314 312 312 313 312 311 309 306 305 303 301 300 300 300 302 302 302 301 300 299 299 298 297 296 297
300 296 300 295 293 291 292 298 302 304 303 305 305 306 307 309 311 311 313 313 313 313 313 313 313 312 311 310 309 308 306 305 303 302 301 300 301 300 299 300 299 299 298 298 297 295 295 296 295
302 302 295 298 287 284 289 292 293 299 301 303 303 304 306 308 308 310 310 311 312 312 313 313 310 309 308 308 306 305 304 304 302 301 300 299 299 299 298 298 298 298 297 297 296 295 295 294 294
299 298 298 296 294 287 285 289 300 299 302 301 303 305 306 307 307 308 309 310 310 311 311 309 307 306 306 305 305 304 303 302 302 300 299 298 298 298 298 297 296 296 295 295 294 294 294 293 292
301 298 298 293 289 294 291 289 303 302 303 304 303 304 306 307 307 307 308 308 307 307 308 307 306 305 305 304 303 301 302 300 299 298 297 297 296 297 296 295 294 294 293 293 292 292 292 291 291

GFSSGP_sfc_thetae_015.txt.gz
Theta_e
316 311 310 307 297 296 293 301 309 309 308 316 319 318 316 318 314 308 337 339 341 342 346 347 347 349 350 350 349 349 349 348 347 347 347 345 343 342 340 340 341 341 341 341 341 340 339 338 337
315 313 309 303 294 291 295 308 305 307 311 318 317 317 315 311 321 325 331 339 343 343 345 346 347 348 349 349 348 348 348 347 347 346 345 345 343 340 339 339 341 340 339 339 339 339 339 338 338
316 313 301 297 294 291 297 307 306 309 313 315 314 317 316 313 322 325 340 342 343 342 346 346 346 347 349 349 348 347 347 347 346 346 345 342 339 339 339 340 341 338 337 337 337 336 336 335 336
310 306 300 293 292 298 305 307 310 311 314 317 315 311 317 322 322 331 340 340 338 337 340 341 342 344 347 347 347 345 344 344 344 344 342 340 339 340 339 337 336 334 334 333 333 332 332 333 333
310 302 293 292 296 306 308 310 312 310 310 317 318 311 312 320 325 326 334 336 333 333 336 338 339 342 344 345 344 343 343 343 343 342 341 339 339 338 336 335 334 332 332 331 330 329 329 330 332
300 299 291 290 302 307 307 310 312 311 312 317 316 313 311 317 317 320 328 330 332 331 333 336 340 340 340 341 341 340 340 341 341 341 340 338 337 337 335 333 332 330 329 328 327 327 327 328 329
298 296 292 294 298 303 305 308 305 311 309 315 319 310 312 314 316 317 321 327 328 328 327 330 333 336 337 337 337 337 338 337 337 338 337 337 336 336 335 333 331 329 327 326 326 326 327 328 328
301 298 294 294 298 296 303 304 304 305 302 311 318 309 309 314 317 316 319 320 322 324 326 326 328 330 330 332 335 335 335 335 334 335 335 334 334 334 334 333 332 330 328 326 326 327 328 327 326
303 293 292 295 296 296 300 298 301 307 306 313 314 317 317 318 316 314 313 316 320 325 325 326 327 328 327 328 333 335 335 335 333 334 334 331 330 330 329 330 330 330 330 329 329 329 328 327 326
298 292 294 298 298 296 298 297 300 302 303 309 315 318 318 317 315 314 313 315 319 322 325 324 324 328 327 330 330 330 333 332 331 331 330 328 328 328 329 329 330 330 329 329 329 330 328 327 321
297 293 297 298 299 299 297 298 301 300 298 306 313 316 317 317 315 315 314 317 321 323 327 328 325 324 324 324 326 328 328 329 329 329 326 324 327 325 323 324 324 323 327 323 325 323 323 320 317
296 300 300 299 300 299 297 298 297 296 299 307 315 320 319 317 317 316 314 316 319 322 328 327 325 325 323 325 324 323 322 324 325 325 324 322 321 319 319 317 316 316 316 317 316 315 315 316 316
298 298 300 300 301 300 302 299 299 298 303 308 314 319 318 318 316 318 317 319 321 322 329 327 325 324 323 324 323 322 323 321 323 321 321 320 321 317 317 317 316 315 315 314 313 313 314 315 315
301 300 298 298 300 301 300 299 301 299 302 308 313 315 315 316 317 317 317 319 320 323 329 327 325 326 323 323 323 321 319 320 321 318 319 320 318 316 317 316 316 315 315 316 314 313 313 314 315
302 297 298 299 300 299 300 296 297 301 302 303 306 311 314 317 317 318 317 317 321 322 329 328 329 328 324 321 321 320 314 317 317 317 317 318 318 316 316 315 315 316 317 315 315 314 314 313 313
297 297 292 299 301 301 298 292 299 302 302 300 302 304 307 314 316 316 316 318 319 327 328 330 332 328 324 322 319 318 317 315 316 317 317 316 317 315 313 312 312 314 315 314 313 313 312 311 310
294 289 293 296 302 301 297 294 299 301 302 300 300 301 303 306 311 315 316 316 317 322 326 322 325 325 324 322 317 316 315 314 313 313 313 314 314 313 310 309 309 311 310 309 309 309 308 307 307
290 292 293 293 294 296 293 293 298 301 302 301 299 300 301 308 311 316 318 319 319 320 325 325 324 322 318 316 314 313 312 313 313 311 311 312 311 310 308 307 307 307 307 306 306 304 305 304 305
297 294 293 293 299 297 295 294 298 301 301 300 302 307 308 310 314 316 316 317 318 317 317 316 316 312 312 311 309 309 308 310 310 310 312 310 309 310 307 306 306 306 305 303 304 303 304 303 304
297 295 294 296 300 295 294 293 298 301 301 302 305 305 307 309 311 313 313 313 313 311 312 311 310 311 310 309 309 310 310 309 310 310 310 310 309 307 308 304 304 304 304 302 301 301 301 301 302
297 295 295 295 297 296 294 293 296 301 303 305 304 305 307 307 308 310 311 309 308 308 308 309 309 309 310 309 309 308 307 307 307 308 308 309 307 305 304 303 302 302 303 301 300 301 300 298 299
295 301 299 297 293 287 294 285 293 298 299 302 303 303 303 306 309 310 309 308 308 308 308 308 309 309 310 309 307 305 305 305 307 305 305 304 303 303 303 302 302 301 301 300 300 303 299 298 296
298 302 298 297 293 291 292 289 291 299 297 299 300 303 303 304 305 307 307 308 309 308 307 307 308 309 309 308 307 306 304 304 305 304 301 301 301 301 302 302 301 300 301 300 299 298 297 297 296
302 300 299 297 294 284 293 291 292 295 298 299 302 304 304 303 305 306 308 309 308 308 307 308 308 308 309 310 308 305 303 303 301 300 298 298 299 299 299 300 299 300 299 298 298 298 297 298 297
299 295 284 284 282 283 297 292 293 299 301 302 302 302 303 304 303 304 305 306 307 307 307 307 308 308 308 307 306 304 303 301 299 297 296 296 296 296 297 297 297 297 297 296 296 296 297 297 295
297 295 283 281 280 283 292 289 291 300 302 303 303 303 304 304 304 304 305 304 305 308 306 306 307 307 306 305 304 303 302 301 299 297 297 296 296 295 296 296 296 296 296 295 295 296 294 294 293
297 290 295 289 285 281 288 293 298 300 301 302 301 302 303 303 303 304 305 305 306 306 306 305 305 305 304 303 302 301 301 299 297 297 296 295 295 296 295 295 295 295 295 295 294 292 292 293 292
297 298 288 287 279 279 285 289 290 296 299 301 299 299 301 301 303 303 304 303 304 304 304 303 303 302 302 302 301 301 300 299 297 296 294 294 294 294 294 294 294 293 293 294 293 291 291 291 291
295 293 294 292 286 279 277 283 294 297 300 298 299 300 300 300 301 302 303 303 302 303 303 302 301 301 300 299 299 297 297 297 296 295 294 293 293 293 294 293 292 291 291 291 290 290 291 291 289
297 295 295 282 284 283 281 283 297 298 299 299 299 301 301 301 300 301 301 301 300 300 301 300 299 299 299 299 298 297 296 295 293 293 293 292 292 293 292 291 289 289 288 287 286 286 286 285 284

GFSSGP_sfc_thetae_018.txt.gz
Theta_e
313 309 309 306 297 295 290 297 309 308 310 318 320 315 313 315 312 308 334 339 342 343 345 345 347 349 349 349 349 349 349 347 346 345 344 343 341 340 339 340 340 340 340 340 339 339 338 338 338
312 311 308 301 293 289 294 304 308 311 314 317 317 318 318 317 327 329 331 340 342 343 344 345 347 348 348 348 348 347 347 346 345 345 344 341 339 339 340 340 339 338 337 336 336 336 335 335 335
313 311 300 296 292 290 296 303 307 311 316 315 313 316 315 318 328 330 337 342 343 343 344 345 345 347 347 347 347 347 347 346 346 344 341 339 339 340 339 337 336 334 334 333 333 332 332 332 332
310 304 299 292 289 294 302 305 312 313 315 316 314 311 317 324 328 337 341 341 340 341 342 342 343 346 347 347 346 345 345 344 344 343 340 339 339 338 336 335 333 332 331 330 329 329 329 330 330
308 300 292 289 294 304 307 309 313 311 313 312 314 310 313 331 338 338 337 339 337 336 340 341 340 343 345 345 344 344 343 342 342 342 340 339 337 336 334 333 332 330 329 328 328 327 327 328 329
299 298 291 289 302 305 307 310 312 314 312 313 313 312 311 331 331 332 334 334 335 333 335 337 341 341 341 342 341 340 340 340 340 340 340 338 337 336 334 332 331 328 327 326 326 328 328 328 328
298 295 291 291 297 303 303 306 308 313 313 311 313 309 310 316 326 329 329 329 329 330 330 331 334 337 338 336 336 336 338 338 338 338 338 337 336 335 335 333 331 329 327 326 327 328 328 328 328
300 297 292 291 300 299 301 302 304 307 305 317 316 306 307 312 321 325 325 323 324 324 328 327 329 330 330 331 334 334 335 335 335 335 335 334 333 334 334 333 332 331 329 328 329 329 328 328 327
302 293 290 293 296 299 300 301 302 307 311 312 312 312 314 314 317 317 316 316 319 322 323 324 325 326 327 329 332 334 335 334 333 333 333 330 329 329 328 330 329 331 330 330 330 330 329 327 326
297 291 293 298 299 296 297 299 300 306 310 310 311 314 313 314 316 315 315 316 318 320 322 323 324 324 325 330 330 329 331 330 329 329 328 327 326 326 328 328 330 331 330 330 330 330 329 328 320
296 293 296 297 298 298 297 298 301 304 304 311 309 311 312 311 311 313 315 318 320 322 324 323 326 325 322 324 325 326 327 327 328 328 327 325 325 325 324 322 323 321 324 321 321 321 318 318 317
294 297 297 297 297 296 297 298 297 298 303 316 315 315 313 312 312 312 314 315 318 322 323 322 323 323 320 321 324 325 325 326 326 324 322 320 317 316 315 314 314 314 313 314 313 312 312 312 314
295 296 298 298 300 296 298 296 298 297 309 317 316 316 315 314 313 315 315 317 320 324 324 322 322 320 321 322 321 321 321 322 322 319 320 319 317 314 315 314 314 313 313 312 312 312 312 312 313
298 297 296 297 298 299 297 297 299 297 307 316 316 315 316 316 316 315 314 315 321 326 323 324 324 323 321 321 321 320 318 320 318 317 318 318 318 314 314 313 313 313 314 313 312 311 311 311 311
298 294 295 296 297 296 299 294 294 299 308 315 315 316 316 317 318 317 317 315 321 327 326 324 324 323 323 321 321 318 314 319 315 314 316 316 316 314 312 310 309 310 311 311 310 310 310 308 309
295 295 290 296 298 299 296 290 297 298 303 308 312 313 314 314 316 316 314 314 322 326 324 326 328 324 322 321 318 318 315 314 314 315 315 314 313 311 308 307 306 308 307 307 307 307 305 305 304
292 287 290 293 299 297 295 292 296 298 300 300 302 302 305 309 313 315 315 318 326 325 324 325 324 322 321 320 316 314 312 311 311 311 311 310 310 310 307 305 305 306 305 305 304 303 302 302 302
288 289 289 291 293 295 292 292 298 297 297 297 298 306 309 310 311 315 316 319 322 322 322 322 322 322 318 313 311 311 310 311 309 309 309 308 308 308 305 305 306 305 304 303 302 301 301 301 301
296 292 291 291 296 295 293 293 296 299 302 303 305 307 307 307 310 311 312 312 312 313 313 314 314 313 313 309 307 308 307 307 307 308 308 308 307 306 305 304 303 303 302 301 301 300 299 300 300
297 293 292 295 298 294 293 293 296 300 300 304 305 305 306 307 307 309 309 310 311 311 312 309 308 308 308 308 309 309 307 307 308 309 307 306 304 303 303 301 300 301 300 299 298 298 298 299 299
295 293 292 293 295 294 295 292 295 299 301 303 303 305 307 306 306 307 308 307 305 305 306 307 307 308 308 308 307 307 307 306 305 304 302 302 303 303 301 300 300 299 299 298 298 298 297 296 297
293 298 297 295 291 285 291 283 291 296 298 300 302 303 305 307 307 307 306 305 305 304 305 306 307 307 307 307 305 305 304 303 303 301 299 299 300 300 300 300 299 298 299 298 298 299 296 296 294
296 299 296 295 290 289 290 286 289 297 295 297 299 302 303 304 306 305 307 306 306 305 305 305 306 307 307 306 305 305 301 301 301 299 298 298 299 299 299 299 298 297 297 296 296 295 294 295 293
300 298 297 295 291 283 291 289 288 291 295 298 300 301 302 302 303 305 306 307 306 305 305 304 306 306 307 306 304 302 301 300 298 296 296 298 298 297 297 297 296 295 295 294 294 294 294 293 293
297 293 283 283 281 282 295 290 290 297 300 301 300 300 301 302 302 303 305 304 304 304 304 305 305 305 306 304 302 301 299 297 297 298 298 297 296 295 294 294 294 294 294 294 294 294 295 294 294
295 292 282 281 279 282 291 287 290 298 303 303 302 302 302 301 301 302 302 302 303 304 303 304 303 302 302 303 301 300 299 300 300 299 297 296 294 293 293 294 295 295 294 294 293 292 292 293 291
295 288 294 286 283 280 286 290 295 299 299 301 302 303 300 300 300 302 302 302 302 302 302 303 302 301 301 300 299 299 300 300 299 297 295 294 293 295 293 293 293 293 292 293 292 290 290 289 289
294 296 288 285 278 279 283 287 288 294 297 297 297 297 298 300 300 300 301 301 301 301 300 300 300 300 300 299 298 298 298 298 295 294 293 293 292 293 292 292 291 291 290 290 289 288 289 288 287
293 291 291 290 284 279 276 282 292 296 298 295 296 297 297 298 299 300 300 300 299 299 298 298 297 298 298 297 297 296 295 296 295 293 293 292 292 293 293 292 289 288 287 287 285 285 286 284 284
294 293 291 281 283 281 279 282 295 296 296 298 298 299 298 299 300 299 299 298 297 296 296 295 296 296 297 298 297 295 295 293 293 293 293 293 293 294 293 291 289 288 287 286 285 284 284 283 282

GFSSGP_sfc_thetae_021.txt.gz
Theta_e
312 307 308 306 297 295 290 294 308 307 310 315 318 316 315 319 313 307 332 337 342 341 344 346 347 348 349 349 348 348 346 345 344 344 342 341 340 340 340 340 338 337 336 335 335 334 334 334 334
308 309 306 299 292 289 295 304 306 311 315 317 317 319 318 319 328 330 331 341 342 342 343 345 346 347 348 348 348 347 346 345 344 343 341 339 339 340 338 337 335 334 333 332 332 331 331 330 331
312 309 299 294 289 289 294 304 309 313 316 315 313 316 319 323 329 329 336 341 342 341 342 345 345 346 347 347 347 346 346 346 344 341 339 339 339 338 336 334 333 332 331 330 329 329 329 328 329
308 303 298 292 289 293 300 306 311 312 314 316 316 312 318 327 330 334 340 342 340 340 341 342 343 345 347 347 346 345 345 344 342 341 339 339 338 335 334 333 331 330 329 328 328 328 328 327 328
305 298 291 290 291 298 304 309 312 311 311 313 314 311 316 333 337 338 339 341 338 340 342 342 341 344 345 345 344 343 343 342 342 340 339 338 336 334 333 331 330 329 328 328 328 328 328 328 329
298 296 289 295 299 302 307 308 312 311 312 315 316 311 311 333 334 335 337 337 339 338 339 341 343 343 342 342 342 341 340 340 340 340 339 337 336 335 332 331 329 328 327 327 328 329 328 329 330
295 294 290 293 300 300 306 308 311 311 311 311 315 305 318 324 330 333 333 333 334 334 332 332 335 338 338 337 337 337 337 338 338 338 338 337 336 335 334 332 330 328 327 328 329 329 329 329 329
298 295 291 291 299 300 303 303 311 313 309 315 314 307 314 315 327 327 327 327 326 326 328 327 328 330 329 330 334 335 335 335 336 336 335 333 333 334 334 333 332 331 329 330 331 330 330 330 329
298 291 289 297 299 303 308 300 304 311 310 311 311 311 321 319 323 319 317 318 319 324 323 324 325 326 326 327 331 333 335 334 334 333 333 330 327 326 327 330 330 331 330 330 330 331 330 328 327
297 291 293 297 303 304 300 307 308 309 308 307 307 312 317 319 317 314 314 315 316 319 321 322 323 324 325 330 328 327 330 329 328 328 327 326 325 324 327 328 330 331 330 330 330 329 328 324 318
294 293 295 297 301 301 298 299 303 308 304 308 307 309 312 315 314 312 313 315 316 319 321 322 321 321 322 324 326 325 326 326 326 327 326 324 325 323 323 320 320 316 318 316 316 315 313 312 314
295 297 297 297 298 297 296 297 303 299 309 312 311 312 312 312 313 314 315 316 317 319 321 322 323 322 320 322 323 323 325 325 325 326 323 320 316 315 313 312 312 312 312 311 311 311 311 311 312
294 294 297 298 298 296 297 295 297 296 310 312 312 312 311 312 313 315 317 318 319 320 322 322 323 321 320 320 321 322 323 325 325 322 320 318 315 312 313 312 312 311 312 311 310 310 310 309 310
297 295 294 297 297 297 296 295 295 298 311 311 311 310 310 311 312 313 314 316 319 322 321 321 321 320 320 319 320 320 320 323 321 318 317 318 314 313 312 310 308 308 309 308 308 307 306 305 306
296 293 294 294 295 295 297 293 293 299 312 311 311 311 311 312 311 312 311 315 320 323 322 320 321 320 320 318 318 317 317 319 316 315 315 315 314 311 308 306 305 306 306 306 305 304 303 303 304
294 293 289 294 296 296 293 288 294 302 311 310 310 311 311 311 312 312 313 312 318 322 321 324 326 324 321 319 317 313 312 312 313 313 312 311 310 308 305 304 304 305 304 304 303 302 301 300 300
290 285 289 291 296 294 293 291 294 298 311 309 301 305 308 309 311 313 316 314 321 321 324 322 324 323 322 320 316 311 310 309 309 309 307 308 308 307 304 304 304 304 303 302 301 300 300 298 298
286 287 286 289 292 293 291 292 295 294 298 297 303 304 305 307 308 315 319 320 319 320 321 323 323 321 317 312 310 309 308 308 307 306 305 305 305 305 305 303 302 302 301 300 299 298 299 298 298
292 290 288 289 294 293 291 292 294 298 302 302 302 304 304 305 308 310 311 313 313 314 317 319 318 314 309 309 307 306 305 307 308 308 307 305 305 304 301 300 300 300 298 297 298 297 297 298 299
294 291 289 292 296 293 293 291 296 300 300 303 303 302 303 304 307 309 309 310 312 314 312 307 307 307 307 307 308 311 312 311 309 305 304 304 302 302 301 299 298 298 298 298 297 297 296 296 297
294 291 290 291 292 294 293 291 293 298 300 303 303 304 304 304 304 307 308 307 305 304 304 305 306 306 308 310 309 307 307 306 302 300 298 300 301 300 299 299 298 298 298 296 296 295 295 293 295
291 296 295 293 289 286 290 282 290 294 296 299 301 301 302 304 306 306 304 302 303 303 303 304 305 305 306 305 304 304 303 302 301 298 297 297 298 298 300 298 299 297 296 295 295 296 293 293 291
294 297 294 293 288 287 288 285 287 295 293 296 298 301 304 304 304 303 303 304 303 303 302 303 304 305 305 304 304 304 301 300 298 297 296 298 299 298 300 299 296 294 294 293 293 293 292 292 291
298 296 295 293 289 282 289 286 286 289 294 296 299 302 304 303 302 303 305 305 303 302 302 302 304 304 304 303 302 301 299 298 296 297 298 299 299 298 296 296 294 294 293 293 292 292 291 291 291
296 291 282 281 281 281 291 288 288 295 297 298 299 300 301 300 301 303 304 304 304 302 302 302 303 303 303 301 300 299 298 297 297 296 296 295 295 293 292 293 293 293 293 293 292 291 291 290 289
292 291 282 282 279 281 290 284 289 296 300 301 300 299 299 298 301 302 302 301 301 301 300 300 300 300 301 300 299 299 298 297 297 296 295 294 293 292 292 293 293 293 293 292 292 291 290 290 288
292 287 292 284 282 279 284 288 295 297 298 299 299 299 298 299 299 299 300 300 300 299 299 299 299 299 299 299 298 298 298 297 296 295 293 293 292 293 292 292 293 294 293 292 292 289 287 287 287
293 295 286 283 278 278 282 284 286 292 295 297 296 296 296 297 297 298 298 300 300 300 299 298 298 298 299 298 297 297 296 297 296 294 293 292 292 292 292 293 292 291 290 289 287 286 286 287 284
291 289 289 288 283 278 275 282 290 294 296 294 294 296 296 296 296 297 298 299 298 297 297 295 295 295 296 296 295 295 294 294 294 293 292 291 291 294 294 294 292 289 287 286 285 285 285 284 282
293 291 289 280 282 280 278 281 292 296 295 296 296 296 296 296 297 298 298 298 297 295 294 294 293 293 294 294 294 294 293 293 292 292 291 291 291 291 290 290 290 288 287 287 284 284 284 282 281

GFSSGP_sfc_thetae_024.txt.gz
Theta_e
314 306 304 303 296 293 288 293 307 307 310 316 319 317 317 321 314 308 334 338 341 340 344 345 347 348 348 348 348 348 344 344 343 343 341 339 340 340 338 336 336 335 333 333 332 332 331 331 331
305 306 302 298 291 288 293 299 307 311 315 318 319 320 319 319 328 329 332 341 341 341 342 344 346 348 348 348 347 345 344 343 343 341 339 340 339 337 335 334 335 333 331 331 330 329 328 328 329
309 305 296 292 290 289 292 306 310 312 315 314 312 317 322 322 329 330 338 340 341 340 342 344 345 346 347 346 346 346 345 344 342 340 339 339 337 334 333 333 334 332 330 330 330 329 327 328 329
305 300 294 290 286 292 298 308 312 311 313 317 316 312 319 330 329 334 341 340 339 338 341 341 343 345 346 346 346 345 345 343 341 341 339 337 335 333 332 332 331 330 331 331 331 330 329 329 330
300 295 289 287 289 295 300 311 312 310 311 314 314 311 318 331 335 338 339 339 338 340 341 341 341 343 345 345 344 344 342 341 341 340 339 336 334 333 331 331 330 330 330 330 330 330 330 331 332
295 295 287 292 295 300 305 312 312 311 313 314 316 311 316 335 333 336 340 338 339 339 340 341 342 343 343 343 343 341 340 340 340 340 339 336 335 334 331 330 330 330 330 330 330 330 330 332 332
293 291 288 297 298 299 304 312 311 311 312 312 314 310 323 329 334 336 336 337 338 338 338 339 337 340 339 338 338 337 338 338 338 338 337 336 335 334 333 332 331 331 331 332 332 332 332 331 330
296 293 288 290 300 298 305 307 314 312 309 314 318 313 318 324 331 332 333 333 333 331 331 329 331 332 330 331 335 335 335 335 335 336 335 333 333 332 332 331 330 332 332 332 332 332 331 331 330
298 291 286 296 300 303 307 301 306 312 310 311 309 317 323 326 326 326 324 324 323 325 325 324 325 325 325 326 331 334 335 334 334 334 333 329 325 325 326 330 331 332 331 332 331 330 329 326 323
295 289 290 301 306 305 308 304 309 309 308 306 308 317 323 323 324 322 320 319 318 320 321 321 322 323 323 329 327 326 329 328 328 328 327 325 324 323 326 327 328 326 323 324 323 322 320 317 313
292 291 294 298 306 310 305 304 305 308 304 306 310 314 318 319 317 317 316 317 317 318 320 321 322 322 322 324 324 324 325 325 325 325 324 324 324 322 322 317 313 312 317 312 313 312 311 311 311
291 296 296 296 303 301 299 300 307 303 307 311 316 316 316 316 313 312 312 313 313 316 319 320 320 320 320 321 323 322 323 324 324 324 325 322 317 315 311 312 311 311 311 310 310 309 309 308 308
295 295 296 296 297 298 298 297 306 299 309 310 314 313 313 313 311 311 312 313 314 315 317 319 320 319 319 320 321 321 322 324 324 323 320 317 313 312 311 310 309 308 308 307 306 306 305 305 306
297 295 295 296 294 294 295 294 295 297 307 308 311 311 312 313 312 311 312 314 315 317 318 320 320 320 319 318 319 320 320 321 322 316 316 316 313 311 309 306 305 306 305 305 305 303 302 302 303
296 292 294 294 293 294 296 291 291 303 307 306 308 309 308 308 308 310 311 313 316 319 319 319 322 319 318 317 319 321 318 319 315 314 314 314 311 307 304 304 304 304 304 303 303 302 302 300 301
293 291 287 291 294 293 292 287 293 306 307 304 305 307 309 310 311 311 310 311 317 318 321 323 325 322 320 319 318 314 315 313 312 310 308 308 307 305 304 303 302 303 303 302 301 300 299 298 298
289 285 287 290 294 293 291 288 294 300 307 303 303 304 307 308 311 315 317 311 319 321 321 321 322 320 320 318 314 310 309 309 306 305 305 306 305 305 302 303 302 304 301 299 299 298 298 297 298
285 286 285 286 291 293 290 291 296 297 302 302 302 303 304 305 306 314 316 319 320 321 322 322 321 320 317 313 312 310 308 305 306 306 309 304 306 305 305 303 300 299 298 298 298 297 298 297 298
291 288 286 287 291 293 292 292 295 299 300 300 300 301 302 304 306 311 313 315 317 319 321 321 321 319 310 309 308 306 304 306 310 305 304 305 303 301 299 298 298 298 297 297 298 297 296 297 297
292 289 288 290 293 293 292 291 294 298 299 299 300 301 302 304 306 308 310 312 315 316 316 314 313 312 308 309 308 308 308 308 305 302 300 300 299 299 299 297 297 298 297 296 296 295 294 295 295
292 290 288 289 292 292 292 290 292 297 300 301 301 301 303 305 306 307 309 308 306 304 304 305 306 306 307 308 306 304 304 303 299 297 296 297 299 299 298 298 297 297 297 295 294 293 292 291 293
289 294 293 291 288 285 289 283 289 293 296 298 300 299 301 303 305 304 302 302 301 301 302 302 304 304 305 304 303 302 301 300 298 296 296 296 298 298 299 297 298 296 295 294 294 295 292 292 290
293 296 293 291 288 286 287 285 286 294 293 296 298 300 300 302 301 301 301 301 300 301 300 301 304 304 303 303 303 301 298 297 296 295 296 298 299 299 298 297 294 293 293 292 292 291 291 291 290
296 295 293 291 288 281 286 285 284 289 293 296 298 300 301 300 300 303 303 303 301 302 303 302 304 303 303 301 301 300 297 296 295 295 298 298 296 296 294 295 293 293 292 291 291 291 290 290 289
294 290 282 281 280 280 289 286 287 293 296 298 299 299 299 300 300 301 302 303 303 302 300 301 301 300 301 300 299 299 298 297 296 296 295 294 294 293 291 293 292 292 292 292 292 291 290 289 289
290 290 282 280 278 281 288 284 288 294 298 300 299 299 299 299 301 301 302 301 300 299 298 299 299 300 300 299 298 298 297 296 296 296 295 294 293 292 291 292 293 293 293 292 292 291 290 289 288
291 286 291 284 282 279 283 288 293 295 296 297 297 297 296 297 299 299 298 298 298 298 298 298 298 298 299 298 297 296 296 296 295 295 293 292 292 293 291 292 294 294 293 291 290 289 287 287 286
292 294 285 283 277 277 281 283 285 291 294 296 295 295 296 296 296 297 298 298 298 297 297 296 296 296 297 297 295 295 294 294 293 293 292 292 291 291 294 293 292 291 290 289 287 287 286 286 285
290 288 287 286 282 277 274 281 290 294 296 295 294 295 295 295 295 296 297 297 296 295 295 294 294 293 294 295 294 293 292 292 292 291 291 291 292 292 292 291 290 289 289 288 286 285 285 284 283
291 289 287 279 280 279 278 280 291 293 295 295 294 296 295 295 295 295 295 296 295 294 293 293 291 293 292 293 291 290 291 292 291 290 290 290 290 290 290 289 290 291 289 286 286 284 284 283 281

GFSSGP_sfc_thetae_027.txt.gz
Theta_e
316 310 311 310 300 300 296 297 310 311 313 321 324 320 318 322 316 311 337 340 343 345 347 345 345 348 348 348 348 347 345 344 343 342 340 341 340 337 336 337 337 336 332 331 330 329 330 330 330
310 310 309 306 299 294 297 304 310 315 319 319 319 320 319 315 328 330 333 342 344 345 346 344 345 347 348 348 346 346 344 343 342 340 340 339 337 335 335 334 336 335 332 331 329 329 330 330 331
313 309 304 302 297 294 299 312 313 315 317 316 315 321 320 321 330 332 340 342 344 345 346 346 344 346 347 347 345 345 344 343 342 341 340 337 334 334 333 334 335 335 333 333 331 331 331 330 330
311 308 303 299 294 297 302 313 315 313 315 317 316 313 325 332 331 336 342 342 342 344 345 344 343 345 346 346 346 345 344 342 341 341 339 335 333 332 332 334 335 334 333 333 332 332 332 332 332
307 303 298 297 299 301 302 315 315 313 313 313 314 312 321 333 336 341 340 341 341 343 345 346 340 343 345 346 345 344 342 341 341 341 339 336 333 332 332 334 334 333 332 332 332 332 332 333 333
304 301 297 299 301 306 311 316 315 313 314 314 315 316 322 336 335 339 340 340 341 341 344 345 343 343 344 344 343 341 340 340 340 340 339 336 334 334 332 332 333 332 332 332 332 332 332 332 331
301 299 298 302 302 303 308 317 314 313 313 314 318 317 325 330 335 339 339 341 340 341 341 343 344 343 340 339 339 337 338 338 339 338 337 336 334 334 334 333 333 333 333 333 333 332 332 331 329
303 300 295 303 302 302 308 314 315 313 311 319 323 316 319 328 335 336 338 337 338 338 338 339 343 342 342 340 336 335 336 336 336 336 335 333 332 333 333 330 332 333 333 332 331 331 328 326 326
302 298 294 301 303 305 310 307 313 314 313 313 312 324 328 332 332 331 330 330 332 334 336 338 339 339 337 337 336 335 336 335 334 335 333 330 333 332 332 330 332 329 328 329 328 325 323 323 323
301 297 296 304 310 307 310 309 311 311 311 309 317 325 329 329 329 328 327 327 328 331 333 334 335 333 333 332 335 335 334 334 335 334 334 334 333 333 332 329 325 324 324 324 323 321 322 321 320
299 298 298 305 311 311 309 307 313 311 310 311 317 322 326 326 327 327 327 329 330 331 330 329 331 331 330 331 333 332 333 333 334 333 334 334 333 334 332 325 324 324 321 320 320 319 317 317 316
298 300 300 305 311 308 305 307 310 313 312 315 324 327 326 325 325 327 327 326 323 325 325 327 328 329 329 330 330 331 332 333 333 334 334 334 331 326 324 322 320 320 319 318 317 315 316 314 313
299 300 299 299 306 307 304 306 312 310 312 318 323 325 325 324 325 324 323 321 320 321 324 326 327 327 327 329 330 331 331 332 333 333 330 328 325 323 321 318 317 316 317 316 314 314 312 312 311
301 298 298 297 299 300 302 300 308 306 312 318 321 321 322 322 319 317 316 316 318 321 323 326 327 327 327 326 328 329 330 330 329 327 327 325 324 321 316 316 314 314 314 314 313 312 311 310 309
299 297 298 298 299 299 301 297 297 307 311 314 316 315 316 316 316 315 317 318 320 323 325 326 326 327 325 325 324 321 322 322 322 323 322 322 318 316 316 315 314 313 313 313 312 310 310 308 307
297 297 293 298 299 298 299 293 298 307 309 309 311 311 313 314 315 317 318 320 323 325 326 328 326 325 324 324 318 316 318 320 318 317 315 315 315 316 314 311 311 311 309 308 308 307 307 307 307
295 292 292 295 299 298 297 294 301 303 309 307 309 310 312 313 317 320 321 319 325 326 326 325 327 326 324 318 314 313 315 314 312 312 313 314 312 312 310 308 308 309 308 308 307 307 307 305 305
292 292 292 294 297 299 298 297 301 302 308 307 308 309 310 311 312 316 319 323 325 326 325 326 327 322 316 315 314 313 313 312 311 312 312 311 309 310 309 308 308 309 307 306 306 304 304 304 303
294 293 293 294 296 299 297 298 300 304 306 306 307 308 309 310 314 317 319 323 325 325 325 326 322 318 315 314 312 312 311 311 311 309 310 309 308 308 308 307 307 307 305 304 304 303 302 301 303
295 294 293 295 297 299 297 297 301 303 303 305 306 308 309 312 313 315 319 323 324 324 325 324 323 317 314 315 316 318 316 314 309 307 307 307 307 307 306 307 306 305 304 303 303 302 300 300 302
295 294 294 294 297 298 297 295 298 301 304 305 306 309 312 313 313 316 318 321 322 321 322 323 321 316 316 316 316 314 311 308 306 306 305 306 306 306 306 306 306 305 304 302 302 301 300 297 299
294 298 295 294 294 292 295 290 294 299 301 304 306 310 311 312 314 315 315 311 310 309 312 314 316 314 314 313 313 312 312 311 308 307 306 306 305 305 305 305 304 304 303 301 301 301 300 298 295
296 298 296 294 293 293 293 292 293 299 299 302 305 306 308 311 310 309 307 308 307 309 310 311 311 311 311 311 312 310 308 307 306 306 305 306 306 305 304 304 303 303 303 302 300 300 299 298 296
300 298 297 295 294 288 291 291 291 296 300 302 304 305 306 306 306 306 307 308 308 310 311 311 310 309 310 310 310 309 307 306 306 306 306 306 306 306 305 302 302 302 301 300 299 299 298 297 296
299 296 289 288 288 286 291 290 294 297 300 305 304 304 306 307 306 307 307 307 308 308 309 310 309 308 308 309 309 309 308 307 306 305 305 304 304 303 303 301 301 301 301 300 300 299 298 297 295
295 296 290 282 284 287 291 289 295 299 301 306 306 306 306 306 307 307 307 308 308 307 307 308 307 306 307 307 307 306 305 305 305 304 304 303 303 302 302 301 301 301 301 300 300 299 298 298 295
294 291 295 288 285 285 289 293 297 298 299 302 303 304 304 306 307 307 307 306 306 305 306 306 306 305 306 306 305 305 304 304 303 303 302 301 301 300 301 300 299 300 300 299 298 297 295 295 294
297 297 290 289 282 280 285 287 291 295 297 300 301 303 304 305 305 305 304 304 304 304 304 304 304 303 304 305 304 302 302 301 300 301 300 301 301 301 300 301 300 298 297 296 295 293 294 292 293
295 292 291 291 287 283 281 286 296 298 299 300 302 303 303 303 303 303 303 303 302 301 301 301 300 300 301 302 300 299 299 299 300 300 300 300 300 299 299 298 297 296 293 294 295 293 292 291 291
296 293 292 287 284 284 285 287 295 297 301 302 302 301 301 302 302 302 302 301 300 299 299 297 298 300 299 297 297 297 298 299 298 297 297 298 297 297 296 296 295 296 296 295 294 291 291 289 289

GFSSGP_sfc_thetae_030.txt.gz
Theta_e
321 316 316 316 305 305 303 304 314 317 319 325 326 322 322 325 320 315 339 343 346 345 344 345 346 348 348 347 346 346 345 343 343 342 342 340 338 337 336 338 338 335 332 330 331 332 332 332 332
315 314 316 313 301 299 302 305 311 320 322 322 322 323 321 317 331 332 335 343 346 345 344 345 345 347 348 347 348 346 344 343 341 341 340 337 336 335 334 334 336 336 332 331 333 332 331 332 332
316 314 311 306 302 299 302 313 317 319 319 315 316 324 319 319 331 333 343 344 345 344 345 346 345 346 347 347 346 346 344 343 342 341 337 335 334 333 333 335 337 337 333 333 333 332 330 329 331
313 313 311 302 299 302 309 316 318 317 318 319 316 313 324 329 331 336 343 344 343 344 345 344 343 345 346 346 346 345 343 342 342 341 337 334 333 333 333 336 337 335 334 333 333 333 332 332 332
316 312 303 301 300 303 313 320 320 316 314 314 318 313 320 333 338 341 341 341 341 343 346 347 339 342 346 346 345 344 342 341 342 340 338 336 332 333 333 335 335 334 333 333 333 333 333 332 332
307 309 300 299 303 308 313 320 319 316 316 316 315 316 324 337 337 339 339 340 344 344 344 345 342 342 344 345 344 341 341 341 341 340 338 335 334 334 333 333 333 333 333 333 333 332 332 331 330
306 304 301 305 306 309 313 321 315 314 314 314 320 316 326 332 339 340 339 341 342 343 343 345 345 344 341 340 339 338 339 340 339 339 337 336 335 335 334 334 334 334 334 333 332 329 329 328 328
310 306 305 307 305 306 316 318 316 312 312 323 325 316 321 331 339 340 339 340 341 342 343 344 342 342 342 340 337 336 336 337 337 337 334 333 333 334 332 334 333 331 332 331 328 327 326 327 326
310 302 302 306 307 309 314 311 316 318 316 319 319 325 331 335 337 336 335 336 337 339 340 342 340 339 339 336 336 334 336 336 335 335 333 330 334 334 332 330 329 329 329 327 326 324 325 325 325
306 303 301 308 312 310 311 311 313 314 315 314 322 331 334 334 333 331 331 331 334 335 339 340 339 338 335 330 334 334 333 336 336 336 336 338 339 337 333 328 326 325 324 324 323 323 324 322 321
306 302 305 310 314 315 312 310 312 313 312 317 319 326 328 329 331 330 331 333 334 337 335 336 337 335 331 331 332 332 336 337 339 340 340 340 340 340 337 330 330 329 325 325 323 321 320 321 319
303 306 306 313 314 312 310 313 312 315 315 320 324 331 331 329 332 333 333 333 331 330 329 330 331 333 333 331 332 334 336 338 339 340 340 340 338 337 333 330 329 328 325 323 321 321 320 318 317
304 304 305 308 310 311 313 311 312 314 317 323 329 330 330 328 330 330 329 327 326 325 327 328 330 331 332 334 335 336 338 338 338 339 337 338 335 332 329 327 326 325 325 322 321 319 317 317 316
306 304 303 304 308 310 310 310 315 312 320 325 327 326 326 323 322 324 323 322 323 326 327 330 329 331 332 334 336 336 336 337 337 331 330 330 331 331 326 323 323 324 322 320 318 316 315 315 315
304 300 301 301 304 308 312 306 303 310 317 321 322 323 324 323 322 320 320 320 323 327 329 330 331 332 333 334 333 330 328 329 329 327 325 327 326 323 323 323 321 317 316 315 314 314 315 315 314
300 301 297 301 304 303 309 299 304 311 315 318 321 322 322 321 320 320 321 322 325 328 330 332 332 333 331 328 326 325 324 325 324 323 322 321 320 320 318 317 314 315 315 315 314 314 313 311 311
299 295 296 297 303 303 305 299 305 310 313 315 318 319 319 318 320 323 323 323 325 329 331 331 333 330 324 322 321 324 321 320 319 317 317 317 314 314 315 315 315 315 314 314 312 310 309 307 307
295 296 297 297 301 302 301 302 305 310 313 313 315 317 317 318 320 323 324 326 329 331 332 332 332 327 325 318 319 319 320 318 317 317 316 315 315 315 315 314 315 314 312 310 308 307 307 306 305
299 298 298 299 303 302 301 303 304 310 313 313 314 315 317 318 321 324 325 329 330 331 331 332 330 325 325 322 316 316 315 314 314 315 315 315 314 314 315 315 313 311 309 308 308 306 305 304 305
300 298 297 299 302 304 303 303 305 308 312 314 314 315 317 318 321 322 325 328 329 329 330 331 329 330 329 326 323 321 320 320 318 315 314 314 313 313 313 312 311 309 308 308 307 305 302 302 303
300 299 298 298 301 304 303 301 303 306 309 311 314 316 318 319 320 322 324 325 328 328 329 329 330 329 326 324 322 321 320 316 314 313 313 313 313 312 312 311 310 309 307 305 305 304 302 299 301
297 301 301 300 299 295 302 294 302 305 305 309 311 314 318 320 322 323 325 326 327 329 330 330 326 323 322 322 320 318 318 316 317 317 315 313 312 311 310 309 309 308 307 306 304 303 302 301 298
300 302 301 300 300 298 298 296 300 305 303 308 313 316 319 320 321 321 321 321 320 322 325 327 324 320 319 319 318 318 316 315 314 313 311 313 312 310 309 309 309 308 307 306 305 303 303 301 298
305 302 302 301 300 292 296 296 297 302 305 308 312 314 317 316 317 316 316 315 316 318 320 321 318 317 317 317 317 316 314 312 312 311 308 307 308 308 309 309 309 308 307 305 304 303 302 300 299
304 301 293 291 291 290 297 295 297 303 306 310 311 311 314 313 313 312 312 313 314 315 317 317 316 314 316 315 314 312 310 308 306 306 306 306 306 306 306 308 308 307 306 305 303 302 301 300 297
300 299 293 283 287 291 296 292 299 304 307 312 313 312 313 312 312 312 313 313 314 315 316 316 315 313 313 312 310 309 308 310 309 308 307 305 303 304 306 306 305 305 305 304 303 301 300 300 298
299 297 301 294 291 291 295 298 303 304 304 308 311 310 311 311 312 313 313 314 314 314 314 314 312 310 309 308 308 308 310 308 306 303 303 303 303 301 302 303 302 302 302 302 302 300 299 298 296
302 302 295 297 286 283 291 292 295 300 302 306 309 309 310 311 312 313 313 313 314 313 312 311 309 307 306 307 308 308 305 304 303 303 301 300 301 300 300 300 299 300 301 301 300 298 298 296 296
299 298 296 297 294 287 286 292 302 301 305 305 309 310 311 311 312 313 312 312 312 310 309 307 305 305 306 306 305 303 302 302 302 301 300 300 300 299 298 298 299 298 299 299 298 298 297 295 293
301 299 298 292 289 293 292 291 301 304 306 308 309 310 312 312 312 312 311 310 308 306 306 304 304 304 304 303 302 300 301 301 300 299 299 300 299 299 298 298 298 298 297 298 297 295 293 292 292

GFSSGP_sfc_thetae_033.txt.gz
Theta_e
326 323 318 315 306 307 304 307 312 317 318 325 327 324 323 327 323 316 338 342 344 343 343 344 346 347 348 347 346 346 345 344 343 342 341 339 337 336 337 338 337 335 332 334 333 333 333 333 332
321 315 314 312 303 300 303 309 315 318 320 325 324 323 320 321 332 334 335 343 344 343 342 342 345 347 348 347 347 346 344 342 342 340 337 336 335 334 334 335 338 336 334 333 332 331 330 330 330
317 315 310 307 304 300 302 314 318 320 321 322 321 323 320 323 332 335 341 344 344 342 342 345 345 346 347 347 346 345 344 343 342 340 336 335 333 333 335 337 338 337 335 334 333 331 330 329 330
314 311 311 304 302 306 306 317 318 317 320 321 319 316 322 331 331 339 343 345 344 342 344 342 342 345 346 347 345 343 343 343 341 339 336 333 333 334 335 338 337 335 334 333 333 333 332 332 332
315 311 303 303 304 306 309 317 320 315 318 317 320 312 314 324 332 339 344 344 343 344 344 344 341 343 345 345 344 342 342 342 341 339 337 334 333 334 334 335 334 334 334 333 333 333 332 332 331
307 309 302 300 304 309 311 318 320 316 315 315 315 318 319 330 329 335 341 342 343 341 341 343 342 342 344 344 342 341 341 342 340 339 337 334 334 334 333 334 334 334 333 333 330 331 330 330 329
306 305 301 303 305 308 311 319 316 314 314 313 318 313 326 332 334 336 336 338 338 341 340 342 341 343 341 339 338 338 339 340 340 338 336 336 336 336 335 335 334 334 333 331 329 328 328 328 327
309 307 303 305 305 306 314 316 317 314 312 323 324 314 317 333 338 335 332 331 338 341 343 343 342 340 340 339 337 337 338 337 337 335 334 333 333 333 334 333 331 332 331 329 327 327 327 327 326
312 303 300 305 305 309 318 314 318 318 314 317 324 322 329 337 336 332 333 336 338 340 339 339 336 337 337 334 335 336 337 336 335 333 333 331 332 333 333 329 330 329 328 326 325 325 324 326 327
306 302 303 311 310 310 315 313 314 314 313 316 321 329 336 336 333 332 332 332 334 336 336 336 336 336 334 328 332 332 333 333 335 334 334 335 335 336 331 328 328 327 325 325 324 325 323 325 321
307 303 308 308 313 315 312 312 313 311 311 315 318 328 331 332 334 333 334 335 334 336 331 334 336 335 330 330 331 331 333 335 336 337 338 338 336 336 335 330 328 330 327 326 323 323 322 322 320
304 307 308 310 314 313 309 314 310 313 311 320 326 332 331 331 332 333 332 334 333 330 331 332 332 331 332 330 330 333 333 336 336 338 338 338 336 335 332 328 329 327 325 324 323 322 322 321 320
305 307 308 314 312 311 314 311 311 312 317 322 330 331 330 330 330 333 332 329 329 326 326 328 330 331 333 333 334 336 336 337 338 339 337 335 333 336 331 328 325 325 323 323 323 321 319 319 318
308 307 309 311 311 311 310 311 313 315 320 323 326 326 326 326 326 326 326 326 325 325 326 328 329 332 334 335 337 339 339 337 336 336 336 332 331 331 328 327 323 323 322 320 317 316 317 317 317
307 303 306 307 309 310 313 306 307 315 319 319 320 321 320 320 321 322 323 323 325 327 328 329 332 334 336 335 332 330 329 328 328 332 332 330 330 326 328 325 318 317 318 318 318 317 317 316 314
303 303 299 304 306 310 310 300 307 314 316 316 317 318 318 318 318 320 321 323 327 329 329 331 331 334 333 330 326 327 327 327 327 327 327 324 322 321 318 318 319 317 317 316 316 314 311 310 310
301 296 298 299 306 307 307 302 307 313 315 315 317 319 320 319 319 320 321 323 326 330 331 331 334 332 330 326 324 326 325 323 325 321 321 319 317 318 318 317 318 318 317 316 313 311 310 308 307
296 296 298 299 304 306 304 303 307 312 313 314 317 318 319 318 319 323 324 324 325 331 334 333 332 331 329 327 325 324 322 322 320 318 318 317 318 319 319 318 318 316 314 312 311 310 308 306 304
301 299 298 301 304 302 302 302 304 310 312 313 315 317 318 319 323 326 326 326 329 332 332 332 332 331 328 327 324 323 321 320 319 318 319 319 318 317 318 317 316 314 312 310 310 307 305 303 304
300 298 299 301 303 304 301 301 306 309 311 313 314 316 318 320 322 324 326 329 330 331 331 330 330 330 329 329 326 325 322 321 320 320 319 318 317 316 316 314 312 312 310 309 308 307 304 303 303
300 298 299 299 302 304 304 301 304 309 313 314 316 317 318 319 321 324 325 328 329 328 329 329 330 329 330 328 325 323 323 321 317 316 316 316 316 315 313 312 311 310 308 305 307 306 303 300 301
298 303 302 301 300 294 304 292 301 306 308 311 314 317 318 320 323 325 326 325 326 327 330 332 331 330 327 325 322 321 318 314 317 318 317 316 314 313 311 310 310 309 308 307 306 305 304 302 298
301 304 303 303 300 299 300 296 297 307 304 308 312 315 319 321 323 323 325 327 329 330 330 330 328 324 323 323 322 321 318 319 318 317 315 315 314 313 311 310 310 309 308 307 307 305 304 302 299
306 303 303 303 300 293 297 297 297 303 305 309 313 315 318 321 323 324 325 325 324 327 328 327 322 320 321 321 320 319 318 315 314 312 310 308 308 308 309 308 309 308 307 306 306 305 303 302 300
304 301 293 291 292 291 299 296 298 304 308 310 313 316 319 321 320 318 317 316 318 321 323 323 320 318 319 319 318 317 315 311 308 308 307 306 306 305 305 306 306 305 305 304 304 303 302 302 300
302 300 294 286 288 291 299 292 299 307 309 312 316 316 319 318 317 315 315 316 316 318 319 318 318 317 318 317 314 312 309 308 307 308 307 304 303 304 305 303 303 303 303 303 303 303 302 302 300
301 297 303 296 296 292 294 299 305 307 307 310 314 314 315 315 314 314 315 316 317 317 318 318 317 316 315 312 310 309 308 307 305 305 305 304 303 301 301 302 301 301 300 301 301 301 301 300 300
303 305 295 296 287 286 292 293 297 301 303 308 311 312 314 314 314 315 315 316 317 318 318 318 317 313 311 309 309 308 307 306 304 304 302 302 302 301 301 300 299 300 300 300 300 299 300 299 299
301 299 299 299 297 289 287 294 302 301 304 306 310 313 313 314 314 315 316 317 317 317 316 315 312 309 308 308 308 306 304 304 303 302 302 300 301 300 299 298 299 299 298 299 299 298 298 297 295
304 301 301 294 291 294 294 292 304 304 306 308 309 312 314 315 315 316 316 316 316 315 313 311 309 307 308 307 304 303 303 302 302 301 300 300 300 300 298 298 298 298 298 298 297 296 295 294 293

GFSSGP_sfc_thetae_036.txt.gz
Theta_e
325 323 321 313 301 303 300 303 315 315 319 325 326 324 323 325 321 314 339 340 338 337 342 344 346 347 348 348 348 347 346 343 343 341 341 340 339 338 339 338 337 338 334 333 332 332 332 331 330
318 319 313 306 299 296 300 310 312 318 322 326 323 323 322 321 331 333 336 339 340 339 339 342 346 347 347 347 346 345 343 343 342 340 339 339 337 336 337 338 338 338 334 333 332 331 330 329 329
318 316 305 302 300 297 300 314 316 319 323 323 318 320 321 323 331 334 341 342 341 338 340 344 345 345 347 346 345 344 344 342 340 339 337 335 336 336 336 338 338 337 334 333 333 332 331 331 332
312 311 306 300 299 304 308 315 316 316 320 321 321 315 321 332 330 338 342 342 341 339 342 342 342 345 346 346 345 344 343 340 338 337 337 335 336 337 337 338 337 335 334 334 333 333 332 333 332
313 308 298 298 300 305 308 318 318 316 316 317 319 315 315 326 336 340 341 342 340 341 341 341 340 343 345 344 343 343 341 339 338 337 337 337 335 335 336 337 337 335 333 332 332 332 331 332 331
305 306 297 296 300 308 311 320 316 312 317 315 317 315 317 326 329 335 340 340 340 338 339 340 342 343 343 343 342 341 340 339 337 337 337 336 336 336 336 337 336 335 333 331 330 330 330 330 328
303 302 298 300 301 305 311 320 315 315 314 314 317 315 323 323 331 333 336 336 338 338 337 338 341 342 339 337 338 338 338 338 337 337 337 336 336 336 336 336 335 334 332 330 329 329 329 329 327
306 303 299 301 300 306 314 317 316 315 313 322 323 310 317 328 332 328 327 332 332 335 337 337 339 339 335 335 336 337 336 335 335 335 334 333 333 334 335 332 334 333 330 328 327 326 326 326 325
310 300 298 300 304 306 311 313 318 319 315 319 319 324 330 335 331 327 325 329 330 333 335 336 336 335 333 334 336 336 336 335 333 333 333 330 329 331 329 330 331 330 329 326 324 325 323 327 326
304 300 300 308 309 306 310 311 313 313 311 314 322 329 332 329 326 325 325 327 328 328 332 334 336 333 331 328 331 331 332 330 330 330 330 331 334 330 327 327 329 328 326 324 324 324 326 324 316
305 300 305 308 314 312 310 311 314 312 309 315 318 327 330 330 329 329 327 328 327 328 331 332 333 332 327 326 328 330 331 332 334 334 335 336 335 332 328 324 322 323 325 322 320 320 319 319 317
302 306 306 310 315 313 310 314 310 312 312 317 327 330 329 328 328 328 329 330 329 327 329 330 330 331 328 328 329 332 333 333 336 335 335 335 333 332 328 327 327 323 323 320 321 318 318 316 317
303 305 308 312 312 312 313 311 312 311 314 322 330 329 328 327 329 330 331 331 326 326 327 328 330 331 331 332 334 334 333 335 336 335 335 334 331 331 329 326 324 322 320 316 314 314 313 315 315
306 307 310 311 309 311 310 310 312 312 316 324 327 326 325 324 326 328 325 325 325 325 326 327 328 332 332 334 334 333 335 336 333 333 331 330 328 328 327 320 317 316 315 315 313 314 315 313 312
308 303 306 307 308 309 311 306 304 312 321 320 320 321 321 322 324 323 324 324 324 323 325 326 329 332 334 334 331 327 326 326 328 330 330 329 327 323 320 317 315 314 314 315 315 314 311 309 309
303 303 298 304 306 309 308 299 306 313 315 315 317 318 318 319 320 322 322 323 324 324 324 328 331 333 330 327 326 325 326 326 325 325 325 321 319 319 318 315 315 314 315 313 312 309 307 306 305
301 294 297 300 305 306 306 299 307 312 314 313 315 314 314 315 317 320 322 323 325 326 327 329 333 329 326 325 325 325 325 324 322 320 319 318 317 318 316 315 315 315 314 312 309 307 306 302 301
294 296 298 297 301 303 303 302 306 309 312 314 314 315 315 314 315 318 320 323 326 329 330 331 331 329 327 326 326 324 323 322 321 319 318 316 316 318 317 316 314 313 311 309 308 305 304 301 300
301 298 297 300 304 302 302 302 303 307 309 313 314 315 316 316 319 322 324 324 325 331 330 330 328 327 325 325 323 322 320 319 318 318 318 318 317 316 315 314 313 311 309 307 306 303 301 300 300
301 298 297 301 303 301 301 300 303 306 307 311 313 314 316 317 319 323 324 324 327 330 330 329 328 327 327 327 326 324 321 319 318 318 318 317 316 315 314 311 310 309 306 305 304 302 300 299 299
299 298 298 298 301 301 301 297 301 306 308 310 313 315 317 318 319 322 323 326 329 329 329 328 328 327 328 327 325 322 321 319 316 315 314 315 315 314 311 310 308 307 305 302 303 302 300 296 297
296 303 302 300 298 292 301 291 298 303 305 308 310 312 315 317 321 322 323 324 327 329 329 329 328 328 329 326 321 319 317 314 315 314 315 313 313 312 311 309 307 306 305 304 303 302 300 298 295
299 304 302 300 298 298 296 293 297 302 302 307 311 314 315 317 320 322 324 326 327 327 327 328 329 328 326 323 321 320 318 317 316 315 313 313 313 312 311 309 307 306 305 304 303 302 301 300 296
306 303 302 302 299 290 295 294 295 298 302 305 311 314 316 318 321 323 325 326 326 328 328 328 326 322 322 321 321 320 317 315 313 312 310 309 307 306 307 306 305 304 303 302 301 301 300 298 297
303 299 292 288 288 289 298 295 297 304 307 306 310 313 316 320 320 321 322 323 324 325 326 324 321 318 320 320 319 318 316 312 308 307 305 305 304 303 303 303 301 301 301 301 300 299 299 298 296
299 298 294 285 283 291 298 292 297 306 308 312 314 316 318 319 321 321 321 319 320 322 323 321 318 317 317 318 316 314 311 308 306 307 305 303 301 301 302 300 300 299 299 298 298 298 298 298 296
299 296 302 295 297 293 293 296 305 306 306 308 313 314 316 317 318 317 316 316 317 318 319 319 317 316 316 315 312 309 308 306 304 305 304 302 301 300 300 299 298 298 298 298 297 296 296 296 295
302 303 295 296 287 285 291 293 295 301 302 306 311 312 315 316 316 314 313 315 316 317 318 319 318 315 315 311 310 307 307 306 305 303 302 300 299 299 298 298 297 297 297 297 296 295 295 294 294
300 297 298 297 297 290 287 291 302 301 303 305 309 313 314 315 314 313 314 315 316 317 317 317 316 314 310 308 308 307 305 304 303 302 301 299 299 298 298 297 296 296 296 296 294 294 294 293 292
303 301 300 296 291 295 295 292 304 304 305 307 308 312 314 315 315 314 314 315 315 316 315 315 314 311 308 308 307 305 304 303 302 302 301 299 298 298 297 296 296 296 296 294 293 292 293 291 290

GFSSGP_sfc_thetae_042.txt.gz
Theta_e
319 317 311 305 291 289 287 292 305 310 312 318 324 322 320 322 317 308 331 334 342 343 346 345 346 347 347 347 346 344 343 340 339 339 340 340 340 339 339 338 337 337 334 333 333 332 333 333 334
310 313 306 296 286 283 286 295 307 313 318 320 317 321 321 321 329 327 329 340 342 344 344 344 345 346 346 345 344 342 341 339 340 339 340 340 340 337 338 338 337 337 334 333 332 331 331 332 334
313 311 297 289 284 284 286 303 311 316 320 316 312 318 321 323 330 329 335 341 341 342 342 344 344 344 345 344 342 341 340 339 340 340 340 339 337 336 336 338 336 337 333 331 330 331 331 333 331
304 299 295 287 286 290 295 302 313 316 315 315 315 311 319 325 331 334 337 340 339 340 342 341 342 343 344 343 342 340 339 338 339 340 340 338 336 336 336 337 336 335 332 330 330 329 332 331 331
300 294 287 285 287 296 310 311 313 310 311 313 313 308 314 324 335 334 335 338 338 339 341 340 338 342 342 342 340 339 338 339 339 339 339 338 335 335 335 336 335 334 331 330 329 331 330 330 330
296 292 286 286 293 308 310 314 312 311 311 313 311 311 312 330 332 335 337 337 337 336 336 337 338 340 339 339 338 337 337 338 338 338 338 337 337 336 336 335 334 333 332 331 331 331 330 329 329
293 290 287 289 292 303 310 314 310 311 310 312 315 310 315 324 331 334 333 334 333 335 334 333 335 339 337 336 335 335 336 336 336 336 336 336 336 336 336 335 333 332 330 330 329 328 327 328 328
296 292 286 288 292 299 310 313 315 313 311 319 320 310 308 322 330 331 329 328 326 327 330 332 331 334 334 333 334 334 334 335 334 334 334 333 334 334 335 334 333 331 329 328 328 328 328 327 326
298 291 288 289 295 303 312 309 312 317 313 320 323 320 322 326 328 327 327 326 323 326 328 331 330 332 331 331 332 333 334 333 332 332 332 329 327 326 328 329 330 329 326 324 326 328 326 323 324
294 290 292 297 305 304 309 310 311 309 313 314 316 320 323 325 324 322 323 322 321 322 325 330 329 330 330 330 328 326 328 326 326 326 325 324 325 324 324 328 329 328 325 324 326 326 322 318 311
295 292 296 303 307 307 306 305 310 308 304 312 314 315 317 321 322 320 322 322 322 324 326 329 329 329 327 327 325 324 322 322 322 324 324 324 326 322 321 320 319 318 321 315 314 313 312 311 310
293 298 298 306 309 308 305 308 307 306 307 317 321 320 318 320 320 318 319 321 322 324 327 329 328 326 323 324 323 323 322 324 323 325 326 325 322 320 318 316 316 317 312 310 310 310 310 308 307
296 298 304 310 309 307 310 307 305 309 321 323 321 320 318 320 321 320 319 320 320 320 323 327 327 322 322 323 323 324 326 326 327 324 324 326 323 321 318 315 313 311 309 309 309 307 306 305 304
301 302 306 308 308 308 307 305 303 307 323 321 320 319 321 321 323 322 321 320 321 323 325 328 326 320 322 325 326 326 328 327 326 323 323 322 320 316 313 310 309 309 310 309 307 305 303 302 302
303 301 304 306 305 304 305 300 302 311 320 320 321 323 324 323 324 322 322 320 321 324 326 324 323 324 327 327 328 324 325 325 323 322 321 320 316 314 311 309 308 308 309 306 305 303 301 299 300
298 300 294 302 305 306 302 295 304 309 315 315 318 321 322 322 323 324 325 322 324 324 322 322 327 326 324 321 321 322 321 321 320 316 315 315 314 312 310 308 308 309 308 305 303 301 299 298 297
293 288 292 298 304 303 301 295 302 307 313 315 315 316 319 321 322 323 324 324 324 322 321 323 325 323 320 321 321 319 319 318 317 313 312 313 313 311 309 309 308 307 305 304 303 300 298 296 295
290 291 290 291 300 300 298 297 299 306 310 314 312 309 315 318 320 323 321 322 321 320 321 325 323 320 319 319 317 316 316 315 314 312 312 312 311 311 311 308 307 306 303 302 301 298 298 296 295
296 295 294 295 299 299 299 296 298 302 308 308 309 306 310 314 319 320 318 319 319 319 323 323 320 318 319 317 315 314 313 312 312 311 311 310 311 312 309 307 304 303 300 300 300 297 296 295 294
298 296 294 295 298 299 296 295 296 299 305 308 308 306 307 310 313 315 316 317 318 320 323 322 320 319 319 319 316 315 313 312 311 311 310 311 310 308 306 304 302 301 300 299 298 297 295 294 294
296 294 293 293 295 293 295 292 293 298 301 306 308 308 308 309 310 311 315 316 318 320 322 321 321 319 320 320 318 314 312 310 308 307 307 308 309 308 306 304 302 300 300 298 297 296 295 293 293
291 298 298 297 293 287 292 284 290 295 297 304 307 306 308 309 312 312 315 316 318 321 323 323 322 320 320 320 317 313 311 309 308 307 306 307 308 306 306 304 302 300 300 298 298 298 296 294 292
295 300 297 297 293 290 290 286 289 295 295 297 303 307 308 310 312 313 317 318 320 322 322 322 322 322 321 321 318 314 310 309 307 306 306 305 305 305 304 302 300 299 298 297 296 296 294 294 292
302 299 297 296 292 285 290 288 288 291 297 300 302 305 308 310 313 314 316 321 320 322 322 322 323 324 324 321 315 314 311 308 307 305 305 304 303 300 300 299 298 297 296 295 294 293 292 292 292
299 293 284 282 282 282 294 290 292 296 299 301 302 302 305 309 313 313 317 320 321 321 321 322 324 322 322 318 314 311 310 308 308 307 304 300 298 298 297 297 298 297 296 294 293 292 291 291 291
295 292 285 280 280 284 293 288 292 300 302 303 302 303 306 308 314 315 318 319 321 321 322 322 322 319 314 312 311 310 308 305 302 302 301 300 299 298 298 297 297 295 295 294 292 293 292 291 291
296 291 296 289 286 281 288 291 297 300 302 302 302 305 307 309 314 316 317 318 318 318 318 319 319 313 311 310 307 304 304 302 301 300 302 300 299 298 297 297 296 295 295 294 293 292 290 290 290
297 297 289 288 281 280 285 286 289 296 300 302 301 302 307 310 311 313 314 316 317 317 314 313 315 312 311 307 305 304 303 303 303 303 301 299 298 298 297 295 295 294 294 293 291 290 291 289 288
293 291 292 291 287 281 279 283 293 297 300 301 303 305 308 309 310 312 312 314 315 314 311 309 312 312 308 304 302 302 303 302 303 302 300 299 297 297 297 296 293 293 292 292 290 290 291 289 288
296 294 293 283 284 285 281 284 296 297 299 303 305 307 308 311 310 310 312 312 311 312 311 309 309 309 305 302 301 300 301 301 301 300 298 299 297 298 296 293 293 293 293 291 290 289 289 288 287

GFSSGP_sfc_thetae_045.txt.gz
Theta_e
318 314 308 302 291 288 285 290 295 307 310 317 323 320 318 320 315 306 329 334 343 344 346 345 345 347 346 346 344 342 340 338 337 338 340 340 340 339 338 338 337 338 337 334 333 334 339 340 340
310 313 302 292 285 282 285 292 295 307 316 317 316 320 320 319 328 327 330 339 345 344 344 344 345 345 346 344 342 340 339 338 339 340 339 339 337 338 339 338 337 336 337 335 333 332 333 336 338
310 306 297 288 282 283 285 292 306 314 317 314 311 319 321 320 327 329 336 340 344 343 343 343 344 344 344 342 340 339 339 340 340 340 339 339 337 337 336 337 336 335 336 334 333 331 331 333 334
303 298 293 286 284 289 290 297 311 313 313 315 314 309 321 328 330 334 339 342 340 341 342 340 341 342 343 342 340 340 340 339 339 339 339 338 336 336 336 336 335 335 334 332 331 331 332 330 331
298 293 287 283 287 293 307 309 312 309 311 312 311 309 315 329 333 338 337 339 339 339 340 340 339 341 341 341 340 339 339 339 340 340 338 338 337 335 336 336 335 334 333 332 331 332 331 330 328
295 291 284 283 289 304 308 312 311 311 312 313 312 310 317 331 332 334 336 337 339 337 337 337 338 339 339 339 338 338 339 339 339 338 337 337 336 335 335 335 334 333 332 332 331 330 330 329 328
292 289 284 285 289 292 308 313 308 311 310 311 315 309 318 326 331 333 332 332 332 332 332 332 333 335 337 336 336 336 337 338 337 337 336 336 335 334 334 333 332 332 331 331 331 330 328 327 327
295 291 285 287 290 290 307 312 313 311 309 320 320 308 312 324 328 325 325 324 325 328 327 328 328 331 331 331 334 335 335 336 336 336 335 334 334 334 333 332 331 330 330 331 330 329 328 327 326
295 289 285 289 291 296 309 307 310 316 317 317 320 319 322 327 326 323 321 321 321 323 326 326 326 330 331 329 332 334 335 335 333 333 333 329 326 326 325 328 329 329 329 330 329 327 324 321 322
294 287 291 294 296 303 308 309 310 310 312 313 315 322 325 325 324 320 319 318 319 320 323 326 326 327 330 330 328 327 329 327 326 326 325 324 323 320 325 327 329 327 327 328 325 323 321 313 307
293 291 295 296 304 305 307 306 308 307 304 313 314 316 321 322 321 321 319 319 319 321 324 327 324 329 328 325 325 323 323 322 323 323 323 324 323 320 321 320 317 316 318 311 312 310 309 306 305
291 297 297 300 308 306 305 306 305 304 307 316 318 320 318 318 319 319 319 319 319 319 322 327 327 328 325 324 324 322 321 321 321 322 323 323 321 316 315 314 315 311 310 309 308 307 306 304 303
293 295 303 308 308 307 308 305 309 313 316 318 318 318 318 319 319 320 320 321 320 319 322 327 328 326 323 322 322 321 321 322 325 325 326 324 321 317 316 314 311 308 308 307 305 304 303 302 300
299 303 305 306 306 306 304 303 305 313 319 318 316 315 318 319 318 317 318 318 319 323 324 326 326 323 321 321 321 322 325 326 323 322 322 323 320 316 312 309 308 308 308 306 305 302 300 299 298
302 301 303 304 304 301 303 298 301 312 319 315 315 316 319 319 319 317 318 318 319 320 322 325 326 320 320 321 323 325 325 325 322 321 321 318 315 312 309 308 307 308 306 304 302 300 299 298 297
295 298 296 302 303 304 301 293 304 315 316 315 314 315 318 320 320 320 321 319 320 321 323 325 327 321 323 323 321 322 323 322 320 317 317 315 313 311 308 307 307 307 305 303 301 299 297 296 295
292 291 291 298 303 301 298 294 302 313 314 312 317 318 319 319 322 322 322 321 320 322 323 322 323 322 322 320 320 320 319 318 316 313 313 313 312 310 308 308 308 306 304 302 301 298 296 294 294
288 288 288 294 298 300 297 296 299 306 313 312 312 315 318 318 320 323 323 323 321 322 320 323 323 320 319 319 317 316 316 315 313 311 311 311 310 310 308 307 305 304 302 300 299 297 296 295 294
294 292 292 295 298 299 298 296 298 302 309 310 311 310 316 317 321 322 323 322 322 318 320 322 319 318 319 317 315 313 312 311 311 311 311 311 310 310 307 305 304 302 300 299 298 296 295 294 293
295 294 292 296 297 298 294 295 295 300 305 311 310 307 311 316 319 320 320 320 318 317 320 319 320 318 319 318 315 315 313 312 311 310 310 309 310 309 307 303 302 300 299 298 297 296 294 294 293
294 292 294 293 295 295 294 292 293 297 300 309 311 311 311 314 316 319 316 316 316 316 319 320 319 319 319 317 315 312 310 309 308 307 306 308 308 307 305 303 301 299 298 296 295 295 294 292 292
290 297 296 295 292 287 293 284 290 292 296 304 309 307 308 311 315 318 315 314 315 317 320 321 320 319 318 318 315 312 309 308 309 307 306 306 307 306 304 302 301 299 298 297 297 297 294 293 292
294 297 296 294 291 289 288 285 288 292 292 298 304 307 307 309 312 313 314 315 316 318 319 320 320 319 319 319 317 313 310 309 307 306 305 305 304 304 303 301 300 299 298 295 295 295 293 294 292
300 296 295 293 290 283 289 287 287 290 295 297 300 306 306 307 310 311 314 315 315 318 319 319 319 319 319 318 318 314 311 307 306 304 303 302 300 299 299 299 297 296 295 294 293 293 292 291 291
296 291 283 281 281 281 292 288 290 295 297 298 298 304 306 307 308 310 313 314 316 318 319 319 319 319 321 320 319 314 312 309 308 305 304 300 297 295 296 296 295 296 296 295 293 293 292 291 291
293 291 284 279 279 282 291 286 291 297 299 299 300 301 304 306 310 311 314 316 317 318 319 320 320 320 322 321 318 313 310 309 308 307 305 301 299 297 296 297 297 297 296 295 294 294 292 292 290
294 289 293 287 284 281 285 290 295 298 300 300 300 301 302 304 310 312 315 318 318 319 319 320 320 321 319 317 311 308 308 305 303 303 303 301 299 298 298 297 296 296 295 296 294 291 291 289 289
296 296 287 286 280 279 283 284 287 294 296 300 299 300 304 306 310 312 316 317 319 320 320 319 319 315 313 307 306 306 306 304 303 303 301 299 299 298 297 296 296 296 296 294 292 289 289 288 288
293 290 290 290 286 280 278 284 290 295 297 299 299 301 306 307 310 313 315 316 317 316 315 317 316 311 308 304 303 303 303 303 303 301 300 299 298 296 297 297 296 295 293 292 290 289 290 290 288
295 293 291 283 283 283 281 283 293 294 297 299 302 303 306 308 310 312 313 314 314 314 314 314 313 311 308 304 302 303 302 302 300 299 298 297 297 299 298 297 294 293 292 291 290 290 290 288 286

GFSSGP_sfc_thetae_048.txt.gz
Theta_e
316 309 307 299 291 287 284 288 292 297 307 317 322 320 316 319 314 305 331 334 342 342 344 344 345 346 344 343 342 341 340 340 339 339 341 340 339 339 339 338 339 339 339 342 342 341 340 340 341
310 310 300 291 285 281 284 290 291 298 314 315 316 317 318 318 325 327 330 340 343 343 343 343 345 344 343 342 340 339 339 339 340 340 339 339 339 339 339 338 337 338 338 337 340 342 342 341 340
307 303 296 287 282 282 283 290 302 312 316 312 312 318 319 320 327 329 336 341 343 342 342 342 343 342 342 340 339 339 339 340 340 339 338 338 339 339 338 337 337 337 337 334 335 337 337 336 335
301 298 291 286 280 286 288 295 305 311 311 314 312 310 321 329 329 335 340 342 341 341 341 340 341 341 341 340 340 340 340 340 339 339 339 339 338 338 338 336 336 337 335 332 331 332 333 332 332
296 292 286 282 283 289 302 308 310 308 311 311 313 311 316 329 336 337 339 339 339 339 340 339 338 339 341 341 341 340 339 339 339 339 339 339 338 337 337 335 334 335 335 333 330 331 331 331 331
293 290 283 281 285 293 307 310 310 310 311 313 314 312 318 331 332 333 333 331 337 336 338 338 340 339 338 339 340 339 339 339 339 338 338 338 337 336 335 334 333 333 333 332 332 331 329 329 330
291 287 283 283 286 289 304 312 307 308 308 309 315 310 318 327 331 330 327 328 329 333 332 331 331 335 336 336 337 337 338 338 338 337 337 336 335 334 333 333 333 333 332 331 330 329 329 328 326
293 290 283 284 287 289 304 312 313 309 309 320 320 309 313 324 326 326 325 325 324 322 325 325 328 330 331 332 335 336 336 336 336 336 335 333 333 333 332 331 332 332 332 331 330 328 327 327 325
292 287 284 287 290 292 308 306 309 317 314 316 319 317 322 324 324 321 321 322 321 320 317 320 324 329 328 329 334 335 336 335 334 333 333 328 325 325 321 328 330 331 330 329 327 324 322 321 320
291 286 289 293 292 297 306 307 308 310 311 313 316 323 324 322 321 317 317 316 318 318 321 323 323 326 328 329 328 328 330 327 327 327 324 322 322 320 324 327 327 330 328 326 324 319 316 310 305
290 289 293 295 296 303 306 305 308 309 305 312 312 318 321 320 319 317 317 317 317 318 317 318 319 321 327 325 324 324 323 323 323 323 322 322 320 321 321 316 315 314 316 310 309 307 305 303 302
290 295 295 295 305 305 305 307 305 304 307 317 318 320 320 319 319 318 318 318 318 317 317 318 319 319 325 324 323 322 321 321 320 321 323 322 317 316 315 315 313 310 309 307 306 304 302 301 301
291 294 300 305 306 305 307 305 309 309 314 319 320 319 318 319 320 321 320 319 318 318 319 318 319 325 325 323 322 321 320 320 321 321 322 323 318 314 314 314 310 308 307 305 303 302 300 299 299
300 303 303 306 306 305 304 305 306 311 316 316 317 317 317 318 319 318 318 316 316 317 320 324 325 325 323 321 321 320 321 322 324 323 323 323 320 315 314 310 307 307 305 304 302 302 298 297 298
300 300 303 304 303 303 304 296 301 314 316 313 315 316 317 318 317 317 318 317 317 319 320 323 325 322 320 319 320 320 322 324 321 321 323 321 319 315 309 307 307 306 303 302 300 300 298 297 297
296 297 294 302 302 301 298 293 304 315 314 312 313 314 317 318 317 316 318 319 319 321 322 324 327 320 319 319 321 322 323 322 320 319 317 316 315 312 307 307 307 304 304 301 299 298 296 295 295
291 287 290 297 302 300 296 292 303 315 313 311 311 314 316 317 317 317 318 317 318 318 319 322 322 318 319 320 319 319 320 319 318 316 314 313 311 309 308 310 308 305 303 301 300 297 296 295 294
288 289 290 294 296 300 295 295 301 311 311 312 311 312 314 316 317 319 321 319 317 319 321 320 320 319 318 317 316 316 316 315 314 313 312 311 310 309 307 307 306 303 301 299 298 297 296 295 294
292 291 290 291 297 298 296 295 296 303 309 309 312 313 315 317 319 321 321 320 317 318 318 319 319 317 317 315 314 313 312 315 312 311 311 310 309 309 307 305 303 302 300 299 297 296 295 294 293
293 291 290 295 296 295 293 293 295 300 308 310 311 313 315 316 317 320 320 319 318 318 318 320 319 317 318 319 314 314 312 312 313 311 309 309 309 308 306 304 301 300 299 298 296 295 294 293 292
292 290 291 291 294 294 292 290 292 296 303 307 311 314 315 316 316 317 318 319 318 317 317 319 319 318 319 318 315 310 311 311 310 308 307 308 309 308 305 303 300 299 298 296 295 295 294 292 293
289 295 294 293 291 285 291 284 288 291 297 302 308 309 311 312 317 318 318 317 317 317 318 320 319 318 318 316 316 311 310 309 310 308 306 309 307 306 304 302 299 298 297 296 296 296 294 294 292
293 296 294 293 289 287 287 285 288 290 291 296 303 309 310 311 314 316 318 318 318 317 316 318 318 318 318 317 316 312 310 312 308 306 308 307 304 303 302 300 298 297 296 295 295 294 294 296 292
298 294 292 291 288 283 287 285 286 289 293 294 298 305 309 309 311 315 318 315 314 314 315 316 317 317 318 317 315 313 312 310 308 307 305 302 300 300 299 298 297 295 295 293 294 294 293 293 292
293 290 282 280 281 281 289 287 289 293 296 296 297 302 307 308 309 311 311 312 312 313 316 317 317 317 318 317 317 317 315 311 310 308 304 299 297 295 295 296 295 295 296 296 295 293 293 293 292
291 290 283 279 278 282 289 284 290 296 299 300 298 297 303 303 306 308 310 312 313 314 317 318 318 318 319 318 318 318 315 313 310 309 306 302 297 297 297 296 298 298 297 295 295 294 293 292 291
292 288 292 285 284 280 285 289 292 295 297 299 298 298 301 302 305 308 309 312 312 315 317 318 319 319 319 319 318 314 312 311 308 308 303 300 298 297 298 299 298 295 296 296 295 293 293 290 288
294 295 286 285 280 279 282 284 286 292 294 298 298 299 300 302 305 306 310 312 314 316 317 318 319 319 320 319 315 311 310 309 307 305 303 301 299 297 298 298 295 296 297 296 294 292 291 288 288
291 289 289 288 284 280 278 283 290 292 294 296 298 299 301 305 306 308 311 314 315 316 317 317 318 318 312 310 308 306 306 306 307 306 304 302 299 299 297 296 296 296 295 294 292 289 290 289 288
293 291 290 283 282 283 281 283 293 292 293 296 298 301 303 306 307 309 310 312 314 316 316 316 316 316 313 306 304 305 305 306 305 303 300 300 299 297 297 298 296 294 293 292 290 291 290 289 288

GFSSGP_sfc_thetae_051.txt.gz
Theta_e
323 314 314 307 298 297 293 295 298 299 307 322 324 322 320 320 316 311 334 337 344 343 345 345 345 345 344 343 343 342 343 342 341 342 342 341 341 341 341 340 342 346 344 344 341 343 343 340 337
315 314 308 301 295 291 293 296 297 306 315 318 319 321 320 317 326 328 331 339 344 344 344 344 343 343 343 342 341 342 341 341 342 341 341 341 341 341 340 339 341 345 346 344 343 343 342 338 337
312 307 306 298 293 291 293 296 302 315 317 316 317 322 322 319 328 330 337 343 345 343 343 343 342 341 341 340 340 341 341 341 340 340 341 341 341 341 340 338 338 340 344 344 344 342 337 334 335
308 306 299 295 291 293 294 298 311 313 315 317 316 316 324 331 330 336 341 343 343 341 342 341 340 340 340 340 341 341 340 339 338 339 340 341 340 340 339 337 336 338 340 340 339 334 332 334 333
303 301 296 291 291 294 297 310 314 311 313 315 316 315 319 329 336 338 340 342 339 340 341 341 338 338 340 341 341 340 339 338 338 339 339 339 339 338 337 336 335 335 336 336 334 333 332 331 330
301 299 293 290 292 296 305 314 313 313 313 314 315 317 319 332 331 331 334 334 337 337 339 338 339 338 339 339 340 339 338 338 338 338 339 338 337 336 336 336 335 334 333 332 332 333 332 330 328
300 297 292 291 292 294 302 315 311 311 313 312 318 314 320 327 327 328 328 328 329 329 330 336 335 336 336 337 337 337 338 337 338 338 337 336 335 334 334 334 334 333 332 332 330 329 329 329 326
301 299 292 293 292 294 306 314 315 312 314 323 322 312 315 324 326 326 324 322 323 326 325 324 327 327 328 334 335 336 336 336 336 335 334 333 333 333 333 333 333 332 331 331 330 329 326 323 321
300 296 293 293 293 297 312 311 315 320 317 318 320 319 323 324 324 322 319 318 319 321 323 323 322 323 327 331 336 336 336 335 334 333 332 328 326 326 326 330 332 331 330 328 326 323 321 320 318
300 296 295 298 298 298 309 310 313 314 314 314 318 322 323 321 321 319 317 314 316 316 317 319 321 323 326 330 333 333 333 332 331 330 329 328 328 326 325 328 330 329 327 325 321 317 315 314 310
296 296 299 299 299 306 308 310 312 313 311 315 315 319 320 318 318 318 318 315 314 317 319 320 320 321 323 325 329 331 330 330 329 329 328 327 327 328 325 326 324 324 321 315 314 312 310 310 309
296 298 299 300 306 308 308 311 309 313 312 318 322 321 320 318 317 317 317 317 317 317 318 319 320 323 326 327 328 328 327 327 327 327 329 326 326 326 322 322 319 318 316 314 311 310 311 309 309
296 298 301 304 308 309 310 308 309 312 318 321 321 321 319 319 318 318 318 318 316 315 316 318 318 317 324 327 327 326 326 326 328 328 329 326 324 323 321 320 316 315 314 313 311 310 309 308 307
301 307 307 308 308 308 307 310 311 314 319 318 318 318 319 320 319 318 317 316 316 316 318 320 319 322 327 328 326 327 328 328 328 328 330 328 323 322 321 317 316 315 314 313 311 309 308 307 307
303 304 307 307 307 306 309 303 306 315 318 316 317 316 317 318 320 319 319 318 319 320 320 320 321 325 328 328 326 327 326 326 327 328 327 328 326 322 321 317 316 315 313 311 310 307 308 306 305
301 301 299 305 306 304 303 297 309 316 315 314 315 315 316 318 319 320 321 320 321 321 321 323 325 327 327 327 326 325 327 328 328 328 329 330 328 323 320 317 315 312 309 309 307 308 306 306 306
296 294 295 300 306 303 302 298 309 317 314 313 314 315 316 319 319 321 321 321 320 321 322 324 328 328 327 327 326 327 328 329 330 327 326 325 324 322 320 318 313 310 309 309 309 308 308 306 305
293 293 295 296 302 303 301 301 308 315 314 314 314 315 317 317 319 320 322 322 322 322 324 326 328 329 327 326 326 326 326 328 328 326 324 322 321 319 318 317 313 311 311 310 309 308 307 306 305
296 295 294 296 301 300 299 300 302 313 314 313 313 314 316 317 321 320 321 322 321 322 324 325 327 328 325 324 323 322 322 324 324 321 322 320 318 317 317 316 313 313 311 310 309 307 306 305 305
297 295 294 297 299 299 298 298 300 309 313 314 314 314 315 318 320 321 321 322 322 322 323 324 326 327 326 325 324 324 324 323 325 322 319 319 317 316 315 315 313 312 310 308 308 307 305 305 304
296 295 295 295 298 298 298 296 297 300 309 314 315 318 318 318 319 321 322 322 323 322 323 323 325 326 327 326 324 321 322 322 319 319 319 317 317 314 314 315 312 311 310 307 307 307 306 303 303
293 298 297 296 295 291 296 289 294 297 300 306 314 315 317 318 320 322 323 323 324 324 324 324 325 325 326 325 322 321 321 320 321 319 319 317 316 312 311 312 311 309 308 307 307 306 305 303 301
297 299 297 297 294 294 292 291 294 295 295 300 306 313 316 318 320 321 322 324 326 326 324 325 325 325 325 324 324 323 321 323 318 317 316 316 313 311 310 311 309 308 308 308 306 305 303 302 300
300 298 296 295 294 288 291 291 292 295 297 299 302 307 314 316 317 321 324 325 324 325 324 325 324 324 325 324 324 321 320 319 317 317 316 314 313 312 311 308 308 308 306 304 300 299 300 299 297
298 294 289 287 287 286 293 291 295 299 301 301 303 304 309 316 317 318 320 322 323 321 322 323 323 323 323 323 321 321 321 319 315 316 314 309 309 309 308 307 305 303 300 299 298 301 298 296 299
296 295 290 282 284 287 292 289 294 300 302 304 304 303 304 312 315 316 318 321 322 321 322 323 322 323 323 323 322 321 322 320 319 316 314 311 310 308 306 305 300 299 300 302 299 299 298 298 299
296 293 296 289 287 287 290 293 298 299 301 304 305 304 304 307 311 314 317 319 320 320 321 322 323 322 322 322 323 322 323 320 320 317 315 312 307 304 303 302 301 301 300 299 298 297 298 298 298
297 299 291 290 284 282 286 288 291 296 299 301 304 305 307 307 308 310 313 316 318 320 322 323 324 323 323 323 323 323 322 321 320 316 312 307 306 302 302 302 302 299 299 299 297 297 297 297 299
295 294 292 293 290 285 283 288 297 297 300 301 302 306 307 309 309 311 313 316 318 320 321 322 323 323 324 324 324 322 319 318 316 312 309 306 303 301 301 301 299 297 298 297 296 295 296 297 297
298 296 295 291 287 288 287 288 298 298 298 299 302 305 308 311 312 313 315 317 319 319 320 321 322 322 323 322 319 318 315 312 310 309 306 304 302 302 301 298 297 298 297 296 294 296 297 296 296

GFSSGP_sfc_thetae_054.txt.gz
Theta_e
325 321 318 315 302 301 298 299 304 304 308 321 326 321 317 323 321 312 338 344 345 346 344 346 345 345 345 345 344 344 344 344 343 343 342 343 343 343 343 345 344 345 346 345 343 338 337 337 336
319 317 317 311 298 295 297 302 302 308 316 322 324 325 323 318 328 330 334 340 347 346 345 343 344 344 344 343 343 343 343 343 343 342 342 342 343 343 346 346 346 345 346 345 342 338 337 336 335
316 315 310 304 300 295 298 302 304 316 322 320 321 327 324 321 330 331 337 344 345 344 344 344 343 342 342 342 342 342 342 342 341 341 342 343 342 342 343 344 344 345 346 343 340 337 335 335 336
314 312 309 299 297 300 300 303 311 316 319 321 322 320 327 334 332 338 342 345 343 344 344 340 340 340 341 342 342 342 341 339 340 340 341 342 341 341 341 341 344 345 345 341 335 333 333 333 332
313 309 300 298 297 300 303 306 314 315 316 317 321 319 322 333 336 340 341 346 344 344 343 341 338 339 340 342 342 340 339 339 339 340 340 340 340 339 338 339 341 342 340 336 332 331 330 331 330
306 307 297 296 297 300 304 310 316 316 316 317 318 319 323 334 334 332 334 336 341 340 342 340 338 339 339 340 339 338 338 338 338 339 339 339 339 338 337 336 336 336 336 335 333 331 330 328 326
304 302 297 297 297 298 304 317 315 315 315 315 321 315 325 327 329 328 329 331 331 333 336 335 336 338 337 336 337 336 337 338 337 337 337 336 336 336 335 334 334 333 333 334 332 330 328 326 322
307 304 298 299 297 298 307 313 318 316 315 324 324 316 318 324 326 326 324 327 325 328 330 330 329 336 337 336 336 336 336 336 336 336 335 333 334 334 334 333 333 332 331 330 328 328 326 321 319
308 300 297 297 297 301 311 307 318 322 319 322 323 324 324 325 327 326 322 322 322 323 324 323 324 321 326 330 333 335 336 334 333 332 331 328 327 328 328 330 331 331 331 328 325 323 320 319 316
304 300 298 303 303 302 305 309 313 317 317 318 321 323 323 324 323 320 318 317 318 318 320 322 319 317 324 329 328 332 333 330 328 328 328 326 328 328 328 330 330 329 327 324 321 319 320 320 317
304 300 303 304 305 305 306 308 316 315 312 317 319 318 320 321 320 318 318 319 317 317 318 319 320 324 323 324 323 328 333 330 329 330 328 328 327 327 327 327 324 324 323 318 317 318 317 317 316
301 305 305 305 306 307 306 315 313 316 317 320 324 321 321 320 320 318 317 316 315 316 318 318 320 322 320 324 323 324 325 328 327 327 329 328 326 326 328 326 326 324 323 321 319 318 317 315 314
303 305 309 308 309 310 314 313 312 315 321 326 323 322 320 322 322 321 317 316 317 315 317 317 319 319 323 323 323 327 328 326 326 328 328 328 327 326 326 326 325 323 322 320 318 316 315 314 314
306 309 311 311 311 313 311 313 315 318 323 322 322 321 320 320 321 322 318 317 317 317 317 316 317 318 320 322 324 326 328 327 328 328 329 329 328 328 325 325 323 321 320 320 319 318 316 315 314
307 306 311 311 312 310 313 309 309 320 322 320 320 320 321 320 320 320 322 320 320 318 319 315 320 323 324 326 326 328 327 326 326 328 333 330 328 329 327 324 320 320 321 320 318 317 316 314 312
304 307 300 310 311 309 310 300 312 320 320 318 319 320 319 320 319 319 321 322 321 322 320 321 321 324 326 329 328 326 326 326 327 331 333 332 331 328 327 324 324 323 321 318 312 315 316 314 313
303 297 298 303 309 308 307 302 311 320 318 317 318 319 319 319 321 322 323 322 323 324 323 323 324 325 327 331 331 327 329 328 327 331 332 332 334 332 328 325 325 323 314 313 313 316 316 313 312
296 297 299 299 305 308 305 305 308 318 316 315 318 318 320 320 320 323 324 324 325 325 324 323 326 328 331 331 331 328 326 328 330 332 331 331 333 333 330 327 325 318 317 313 314 314 315 314 313
301 299 298 302 305 303 302 303 306 315 316 315 317 317 317 321 324 324 325 325 324 325 325 326 327 329 331 329 327 326 323 326 329 331 332 329 330 330 330 327 323 319 315 315 315 314 313 311 312
301 299 298 301 303 302 302 302 305 311 315 315 317 318 319 321 322 321 324 324 324 324 326 326 327 330 331 330 328 326 324 326 329 331 328 328 327 327 326 325 321 320 317 313 314 315 312 312 312
301 299 298 298 302 303 302 300 302 307 314 316 319 320 319 320 321 322 322 324 325 323 325 327 329 331 332 332 330 327 327 327 327 327 327 324 324 324 323 324 321 321 316 311 314 315 313 310 310
297 303 301 300 299 294 302 292 299 304 306 312 316 319 320 319 321 324 324 323 324 325 326 327 328 329 332 333 329 326 322 321 325 327 326 324 323 322 323 322 320 317 315 315 315 314 314 311 307
299 303 301 301 299 298 297 294 299 301 301 305 310 316 320 323 321 323 326 327 327 327 327 328 328 328 330 332 332 328 324 324 328 328 326 323 322 324 320 318 317 316 317 316 315 313 312 306 301
305 302 301 301 299 292 296 295 297 300 302 304 307 311 316 321 323 323 326 329 330 332 331 331 329 328 330 331 332 331 328 327 328 326 325 324 323 322 318 314 314 316 316 315 314 311 303 302 301
303 299 292 290 291 289 297 295 297 303 305 307 308 311 313 318 322 323 323 326 328 330 332 332 330 328 330 331 331 331 331 329 328 327 325 323 321 316 314 314 316 315 315 310 303 305 307 302 299
301 300 293 285 287 292 296 292 298 305 307 308 311 311 312 314 319 323 324 326 328 329 331 332 330 330 330 331 331 331 330 329 328 327 325 324 318 312 316 313 314 308 305 303 307 305 300 301 298
300 296 301 294 294 292 295 297 303 304 305 307 308 310 309 312 316 319 323 326 328 330 330 332 331 330 331 329 331 329 328 327 327 326 325 322 316 312 308 309 305 306 307 306 300 300 298 299 301
302 304 294 296 286 285 291 293 296 299 300 304 306 308 312 314 314 317 320 324 327 329 331 332 331 330 331 331 330 328 327 327 326 325 322 317 311 306 305 303 303 306 302 300 303 301 298 298 299
299 298 298 298 295 289 287 292 303 301 303 303 307 310 312 315 315 317 318 320 323 326 327 328 329 329 330 330 330 329 329 329 325 322 320 314 309 305 304 304 304 300 299 300 298 297 298 296 301
304 301 300 294 291 295 294 293 304 305 305 306 307 309 313 317 318 318 320 321 322 323 325 326 327 328 329 330 330 329 325 321 319 315 313 309 304 304 306 304 300 299 300 298 298 296 297 300 301

GFSSGP_sfc_thetae_057.txt.gz
Theta_e
326 326 321 315 303 303 298 301 306 305 307 314 319 315 312 313 315 311 339 345 346 344 344 348 347 348 348 347 346 345 345 345 345 344 344 344 344 344 345 346 347 346 345 339 338 337 337 337 336
326 318 316 310 300 296 298 304 302 306 314 319 320 320 319 316 329 332 335 345 347 345 343 347 345 346 346 345 344 344 344 344 344 344 344 344 344 346 345 345 345 346 344 339 338 337 337 336 335
321 318 310 305 300 296 297 303 306 311 318 317 316 324 323 322 330 333 339 342 345 344 342 346 343 343 344 343 343 343 343 342 342 343 344 344 347 347 347 345 344 345 343 338 337 336 335 334 334
316 313 310 300 298 302 302 305 307 311 316 320 319 317 329 335 333 338 342 344 345 346 342 341 340 341 343 343 343 342 342 341 341 342 343 345 346 347 346 344 344 344 341 336 335 333 331 332 332
315 310 301 300 300 303 305 306 309 310 314 317 319 314 324 335 339 341 344 345 347 346 343 344 338 340 342 343 342 341 340 340 341 341 341 342 342 344 345 343 343 341 338 334 332 330 329 329 328
308 308 299 297 298 302 305 308 310 314 316 318 317 317 326 337 334 334 343 343 341 339 339 338 339 339 339 340 340 339 339 340 340 340 339 340 339 341 342 341 338 337 335 334 331 330 328 326 325
306 304 299 300 299 300 304 315 312 314 314 314 320 315 327 329 329 331 336 338 336 337 335 336 336 338 337 336 336 336 338 338 339 338 338 337 336 336 337 337 337 336 334 332 330 328 326 323 322
308 305 300 300 298 300 309 312 316 316 314 325 325 315 319 326 326 327 329 329 330 333 332 332 333 334 334 335 334 335 334 336 336 336 335 334 334 334 333 333 334 335 333 331 327 325 322 321 320
311 301 298 299 299 302 309 309 317 323 318 319 326 327 327 329 327 325 324 325 322 326 329 332 331 332 332 335 334 333 335 335 333 333 332 329 328 326 328 331 331 331 330 329 325 322 320 320 318
306 302 300 305 305 304 306 308 311 316 317 318 323 323 324 326 328 325 322 321 321 318 320 324 327 327 328 326 328 328 330 331 330 329 331 327 328 328 327 330 330 329 328 326 323 322 321 320 317
307 301 305 305 307 307 307 307 312 314 313 311 319 319 321 322 321 322 319 319 319 320 318 318 320 321 324 323 325 326 328 328 327 330 330 331 330 331 328 326 324 323 323 317 317 317 320 320 318
303 307 306 307 308 308 309 312 313 315 317 322 326 323 322 321 320 320 318 316 316 316 316 319 322 322 321 320 319 322 325 327 328 328 332 332 329 330 328 324 323 324 322 321 323 321 320 318 317
305 306 308 311 309 310 313 313 313 315 322 327 325 323 323 323 323 321 318 316 315 315 317 318 319 319 319 317 319 320 319 321 323 328 330 329 327 329 328 328 326 325 324 323 322 320 318 318 316
308 307 310 311 310 311 311 312 314 318 325 323 323 322 321 322 321 318 317 314 315 315 316 317 318 320 320 318 320 321 327 326 326 328 329 333 331 331 328 327 325 325 324 323 322 321 319 317 316
308 305 309 311 311 310 313 305 306 320 323 321 320 321 321 321 322 321 317 316 316 314 315 316 317 320 320 319 321 324 327 326 326 326 333 330 330 330 329 326 326 324 324 324 323 320 320 317 315
304 306 301 304 310 310 310 298 304 320 319 317 318 317 321 321 321 321 321 319 318 317 315 317 319 320 321 320 322 325 326 326 323 327 329 332 330 330 329 327 325 325 325 322 321 319 319 318 315
303 297 300 303 311 309 307 302 312 318 316 315 317 317 319 322 322 322 324 323 321 321 319 319 321 322 323 325 325 327 329 326 326 327 330 333 332 330 328 326 327 328 324 322 318 319 321 317 314
297 298 301 301 304 306 305 306 308 316 316 315 318 319 319 321 321 323 323 323 323 321 320 321 323 325 327 328 327 325 325 327 326 326 329 332 332 334 330 328 329 327 323 319 318 318 318 318 314
302 300 299 303 306 306 303 303 306 313 315 315 317 317 319 321 323 324 323 323 323 324 323 323 324 327 325 324 323 323 321 324 325 327 331 333 332 333 333 331 329 326 321 320 319 317 317 315 314
301 300 299 303 305 304 303 303 305 310 314 315 316 318 317 320 322 323 323 324 324 323 323 322 322 324 325 324 324 324 324 323 326 328 331 333 332 332 331 331 329 326 322 320 318 317 314 315 315
301 300 300 299 303 305 303 300 302 307 313 315 317 320 319 320 320 320 321 323 324 324 324 323 325 326 327 328 327 325 325 324 323 325 328 331 329 325 324 325 327 325 324 319 318 316 314 312 313
298 304 302 301 299 294 303 293 301 305 308 312 315 317 319 319 322 322 322 324 324 324 326 326 326 327 328 330 327 326 322 320 322 325 327 329 324 323 322 321 323 327 325 320 316 315 316 316 312
300 304 302 302 300 299 299 295 299 304 302 306 312 316 319 319 322 322 323 324 325 326 327 328 328 329 330 330 330 327 325 324 325 326 328 328 326 325 323 323 323 325 321 317 315 316 318 315 313
306 303 302 303 300 292 298 296 296 300 302 305 308 314 317 320 320 323 326 326 326 328 329 330 328 327 329 330 331 331 329 327 324 325 328 326 326 325 325 324 321 320 317 315 316 320 317 309 306
304 300 293 291 291 291 299 296 299 303 306 306 307 310 314 319 321 320 323 325 326 327 329 330 328 327 329 331 331 331 331 331 329 326 329 326 325 324 323 323 316 314 314 316 317 310 306 309 306
302 300 294 286 289 292 299 293 299 306 307 309 310 312 315 316 320 322 323 324 327 330 331 330 330 329 329 330 331 331 333 332 332 330 330 329 327 325 323 315 314 313 307 304 305 307 308 304 301
300 298 303 296 298 293 296 299 304 306 306 307 308 311 313 315 317 320 324 325 327 329 333 335 332 331 331 331 331 330 332 334 332 332 331 329 328 323 320 315 312 305 305 307 307 304 300 300 300
303 306 296 297 287 287 293 295 295 301 302 304 306 308 312 315 315 319 321 325 327 329 333 335 335 332 332 331 332 332 333 331 330 329 326 325 324 320 314 309 307 305 305 305 304 301 301 297 299
301 299 301 300 297 290 289 293 304 303 304 304 306 309 310 314 317 318 320 323 326 329 331 333 333 333 332 332 333 331 329 329 329 326 325 323 319 313 309 306 305 303 303 301 300 298 297 297 298
303 301 301 295 294 297 295 295 306 306 307 307 308 308 312 315 316 320 321 321 323 326 329 330 332 332 332 333 332 330 329 325 323 321 318 315 311 308 306 306 304 302 300 300 299 297 296 296 296

GFSSGP_sfc_thetae_060.txt.gz
Theta_e
327 319 321 316 300 300 296 298 304 303 307 315 318 314 312 314 311 310 329 329 329 338 346 349 347 349 349 348 347 346 346 346 346 345 345 345 346 348 348 346 344 343 341 339 338 337 336 335 334
325 323 319 307 297 293 295 302 302 306 314 317 314 315 310 307 327 331 329 329 328 341 344 347 347 347 348 346 346 345 345 345 345 345 345 345 346 347 347 345 342 342 341 339 338 337 335 334 334
321 320 308 303 299 294 296 302 304 307 314 315 313 316 317 319 331 333 340 341 344 341 343 347 345 345 346 345 344 344 344 343 343 343 345 345 346 347 347 344 341 341 340 338 337 335 333 332 333
315 312 308 298 295 300 301 304 306 307 311 316 315 312 315 319 332 339 342 342 344 341 344 342 342 343 344 344 344 343 342 341 342 343 346 347 347 347 346 343 341 341 339 335 333 332 330 330 331
315 308 299 298 298 302 304 306 306 305 311 312 314 310 311 317 336 337 341 342 343 338 341 342 340 342 343 344 344 342 341 341 341 344 345 346 347 345 344 342 339 339 336 332 331 329 328 328 328
307 307 297 295 298 303 305 307 307 308 311 312 311 309 312 330 330 334 335 337 343 338 338 339 340 340 340 341 341 340 340 341 341 342 343 345 344 343 343 339 337 336 334 332 329 328 326 325 325
304 302 298 298 298 300 305 311 308 311 309 310 313 308 321 324 326 330 331 335 338 336 332 333 334 335 336 336 336 337 338 339 339 338 339 340 340 339 338 337 336 334 333 330 327 326 325 323 323
307 303 298 299 298 299 307 309 311 311 309 316 316 311 310 320 326 328 327 331 333 333 331 331 330 330 331 329 331 333 335 336 336 336 335 334 335 336 336 335 334 333 331 329 325 324 324 322 320
310 299 296 299 300 301 308 305 310 312 314 315 323 323 325 327 327 327 324 325 328 329 330 330 329 329 328 327 329 330 334 334 333 333 332 330 329 329 329 332 332 332 330 327 324 323 322 319 316
304 299 299 305 304 303 306 306 308 310 311 309 318 322 325 327 327 323 321 318 319 318 325 329 328 325 326 322 322 325 329 329 329 327 325 324 325 325 328 329 329 329 328 326 325 323 321 319 309
305 300 304 305 306 307 305 306 309 307 303 306 310 318 322 323 322 320 319 320 317 317 319 322 324 324 324 325 325 325 325 326 326 329 327 327 325 324 324 322 321 321 322 314 317 317 314 316 313
302 305 305 306 307 306 305 309 310 310 308 310 315 322 321 320 320 318 316 316 315 315 317 320 321 321 322 321 321 322 323 324 325 327 329 327 325 323 321 321 320 318 318 314 317 318 316 314 313
304 305 306 308 309 307 308 308 310 311 316 319 323 322 321 321 318 318 317 316 315 314 317 318 319 318 318 318 320 319 320 323 325 326 328 327 326 325 323 322 320 319 321 320 319 316 315 313 312
307 306 306 310 310 310 307 308 308 310 313 321 321 320 321 319 316 315 314 313 314 315 315 317 317 316 316 315 317 318 320 320 322 327 327 328 326 328 324 325 323 322 322 321 319 316 315 314 311
307 302 305 307 307 306 311 304 304 310 313 316 319 319 319 319 317 315 314 313 314 314 315 316 317 316 316 316 316 317 319 320 322 327 328 327 328 328 325 325 324 323 322 320 319 317 316 313 313
303 303 297 306 306 308 309 299 307 311 310 314 316 317 318 318 319 317 316 315 315 315 314 317 319 317 316 316 315 318 319 322 323 326 327 327 329 328 326 323 324 323 322 320 318 315 314 314 311
301 295 298 302 308 308 307 302 307 310 311 313 313 314 318 318 319 319 318 316 315 315 314 316 318 317 316 317 318 319 322 323 323 323 326 328 328 328 326 325 323 324 321 319 318 315 317 313 310
296 296 299 299 306 307 304 303 308 312 312 314 313 311 318 317 317 320 319 319 317 317 317 318 318 318 318 317 317 320 322 323 324 324 327 329 329 327 326 325 325 325 321 317 315 315 315 315 313
302 299 298 303 306 304 303 303 306 310 309 312 314 313 316 319 320 321 321 320 319 318 318 318 318 320 319 318 318 319 320 322 323 323 326 329 329 330 328 326 326 324 321 316 316 315 312 312 311
301 297 297 302 306 304 302 301 305 309 310 312 314 315 316 318 319 319 319 320 317 317 318 319 320 320 321 321 322 323 321 322 323 323 325 329 331 329 328 327 326 324 320 317 315 314 311 312 312
300 298 298 298 302 304 302 299 302 306 310 312 315 318 316 319 318 318 318 319 318 316 318 320 321 320 322 324 323 322 322 321 320 322 323 328 328 327 327 328 325 323 322 317 316 314 312 309 311
297 303 301 299 298 293 302 291 300 304 305 309 312 316 316 317 320 319 319 319 320 320 321 321 321 322 322 323 322 320 319 317 319 321 324 327 328 326 324 323 322 321 320 319 317 315 312 311 308
300 305 302 301 297 297 297 294 298 303 302 306 311 313 317 317 320 320 320 320 322 323 322 321 321 322 324 324 325 322 321 320 321 322 323 326 325 324 323 323 321 321 321 320 316 313 312 312 310
306 302 302 301 298 291 296 295 295 299 302 305 310 312 316 318 320 321 322 323 322 323 324 324 324 324 325 325 325 327 325 323 321 321 322 324 324 323 323 323 321 321 319 315 313 313 311 310 306
303 299 291 290 290 290 298 295 298 303 305 308 308 311 315 318 318 320 321 321 323 322 323 325 325 324 326 327 328 328 327 328 323 323 324 323 323 322 322 322 321 317 315 314 313 311 306 306 303
300 299 293 285 286 291 299 293 297 306 308 309 309 311 314 316 319 319 321 322 322 324 324 324 324 324 326 327 327 329 328 327 327 326 326 325 324 323 323 322 317 314 312 309 306 305 306 304 301
299 297 302 296 295 291 295 298 304 306 305 307 307 310 312 313 316 320 320 324 324 324 326 326 326 325 326 326 327 327 327 327 328 327 328 326 325 322 320 317 313 309 307 306 307 305 300 298 298
300 302 296 297 287 286 292 293 294 300 302 304 305 309 313 316 315 317 321 322 326 327 328 329 328 328 328 330 329 328 328 328 328 329 327 324 322 319 318 314 309 306 306 306 302 299 299 298 298
298 297 300 299 296 290 288 292 301 302 304 304 307 308 311 316 316 317 319 323 324 328 329 330 331 331 331 331 330 328 329 330 326 325 323 322 317 315 313 309 305 305 303 302 300 299 297 296 297
302 300 299 294 292 296 295 294 306 307 306 308 308 308 313 315 316 318 319 320 324 325 327 330 332 331 331 331 330 328 326 325 322 320 319 316 312 310 308 305 304 303 300 300 298 297 296 296 296

GFSSGP_sfc_thetae_063.txt.gz
Theta_e
320 317 309 309 294 289 286 292 297 302 307 312 316 310 309 312 313 306 327 329 330 329 331 343 346 349 349 348 347 347 347 347 347 347 346 348 348 347 345 343 342 342 339 338 336 335 336 336 336
317 319 310 303 288 283 288 295 296 306 312 315 315 313 309 315 320 323 323 329 330 331 330 330 344 346 348 347 346 346 347 347 346 346 347 348 347 345 344 342 341 341 340 337 335 334 335 334 333
319 318 302 293 288 286 288 297 299 304 313 312 309 313 318 316 321 323 339 332 331 328 339 341 343 345 346 346 345 345 345 344 344 344 347 348 347 345 343 341 340 341 338 335 334 333 332 331 332
310 303 299 290 289 293 295 298 302 303 310 313 314 310 318 319 330 335 341 342 335 335 343 342 342 344 345 345 345 344 343 342 342 343 346 348 347 344 342 340 340 339 336 333 331 330 328 330 330
308 299 289 288 291 296 300 301 307 308 311 310 313 309 311 326 331 334 336 340 338 341 341 341 341 343 344 345 344 343 342 342 342 343 345 346 346 343 341 339 338 337 335 331 329 327 326 328 327
299 297 289 288 292 298 299 304 310 310 310 312 310 309 312 326 326 330 333 336 336 334 334 335 339 342 342 342 341 341 341 342 343 343 344 345 344 341 340 338 336 335 333 331 327 327 326 326 326
296 291 288 290 293 296 302 306 308 309 307 308 312 306 310 315 326 329 330 335 333 329 331 331 330 330 331 335 336 337 339 340 341 342 342 341 340 338 337 336 335 334 332 329 326 325 325 325 324
299 293 289 293 293 293 302 306 311 310 305 316 315 305 308 318 326 327 330 331 331 330 328 328 329 328 326 326 330 331 334 335 337 338 339 337 336 336 335 334 333 332 330 327 324 325 323 322 320
300 290 289 292 295 296 302 300 304 313 312 315 318 320 321 325 327 324 325 328 327 328 328 327 327 326 324 325 327 330 334 333 332 333 332 330 330 330 329 331 331 331 329 327 326 324 321 319 317
295 288 292 299 298 298 301 301 305 309 309 308 311 319 325 325 325 321 320 319 320 324 326 327 325 323 323 324 325 327 329 327 326 325 325 325 326 327 328 330 330 329 327 326 325 322 320 316 308
297 292 298 299 300 300 298 303 310 307 302 306 310 317 322 322 320 320 319 317 316 320 324 324 324 323 322 321 322 321 322 325 325 323 324 324 325 324 323 322 321 320 321 316 317 315 311 310 308
295 300 301 300 304 302 299 307 307 307 308 314 314 320 320 319 317 317 316 315 315 317 320 321 322 320 318 321 320 323 324 323 324 324 324 322 321 319 318 317 316 314 314 311 312 314 310 309 308
299 300 303 304 306 306 309 307 308 307 311 313 318 320 320 318 316 316 316 315 316 316 317 318 320 320 320 320 321 322 322 323 324 325 325 323 321 318 319 317 315 315 315 311 313 312 311 308 307
302 302 301 304 305 306 306 305 307 308 314 315 319 319 316 314 313 314 314 313 314 315 315 316 316 318 318 318 320 320 320 321 323 324 324 325 323 320 318 317 316 316 316 316 313 312 310 308 306
304 299 300 302 304 302 307 301 303 311 313 315 313 317 314 314 313 313 314 313 314 315 315 315 315 317 316 315 316 316 318 318 319 323 324 324 324 322 319 320 318 318 317 316 313 312 311 308 307
299 298 291 299 303 305 304 295 306 309 310 311 313 315 315 314 312 312 314 314 314 315 314 316 318 316 315 315 315 316 315 316 316 322 322 322 324 323 321 320 319 320 319 316 314 312 311 309 307
295 290 292 297 304 304 301 296 305 310 310 309 308 310 313 313 312 312 313 312 312 313 315 315 316 315 314 314 315 315 314 317 314 320 321 321 323 325 322 320 320 319 317 315 315 313 312 310 308
291 292 292 294 300 302 299 299 303 308 308 309 309 309 313 312 311 313 313 312 312 312 314 314 315 314 314 313 313 312 315 316 318 318 320 323 323 325 322 321 320 320 316 315 312 311 311 312 309
297 296 293 295 302 301 299 299 302 306 308 307 308 308 313 313 314 315 313 312 311 311 313 314 313 313 314 312 311 311 313 316 317 318 320 324 325 324 323 322 322 320 317 314 312 311 310 310 310
299 295 292 297 302 300 297 296 304 306 307 307 309 311 313 313 314 314 313 311 312 311 313 314 313 313 312 313 313 313 315 317 320 319 319 325 326 327 325 324 323 322 318 313 312 311 308 310 311
297 295 294 295 299 301 296 293 300 306 307 308 310 311 314 312 312 313 313 313 312 312 312 314 314 314 313 313 314 316 318 317 317 318 318 323 326 326 326 325 324 322 319 316 313 312 310 308 310
293 300 300 298 295 288 295 286 295 302 304 307 311 311 313 313 314 314 314 311 312 312 314 315 316 317 316 317 315 315 316 314 315 316 317 322 325 325 324 323 323 322 321 319 316 314 312 310 308
296 303 301 299 294 290 291 288 292 300 297 302 310 311 311 315 314 313 313 312 313 313 315 316 316 316 317 318 319 318 316 316 316 316 316 319 323 323 322 321 318 318 317 315 316 314 313 312 310
303 300 299 297 293 285 291 290 289 294 298 302 307 312 313 314 316 315 315 316 313 314 315 316 317 316 317 318 319 318 316 316 316 316 316 320 323 324 321 321 320 319 319 317 313 313 312 310 305
299 295 286 284 284 282 296 294 293 299 302 304 306 312 311 313 316 316 315 315 316 314 315 316 316 316 317 318 318 319 320 320 318 316 317 320 320 320 319 320 317 317 314 311 312 312 310 307 304
297 295 287 282 281 285 297 290 294 302 304 305 305 307 313 313 316 316 317 316 317 318 318 317 316 316 318 319 320 321 323 324 321 320 320 321 321 321 319 320 319 316 311 309 310 307 306 305 302
297 292 298 291 292 285 291 296 300 302 302 301 301 303 310 313 315 316 318 318 318 318 319 319 318 318 320 321 322 323 323 323 323 321 321 320 321 321 318 319 316 312 310 308 307 305 303 301 299
298 299 291 292 284 282 289 290 291 298 300 301 299 302 305 308 313 317 318 318 320 320 320 320 321 320 321 322 322 322 324 324 323 321 320 322 320 320 317 314 310 307 307 307 304 301 299 298 299
295 294 293 295 293 283 281 287 298 299 302 299 300 302 305 305 307 310 317 319 320 321 321 320 320 321 321 322 323 323 323 323 321 323 323 319 316 316 314 310 307 306 305 303 301 299 298 298 298
299 296 295 287 289 292 287 287 302 300 301 301 300 303 304 308 308 309 311 316 320 320 321 322 322 322 323 324 324 324 323 322 320 320 319 317 313 312 309 306 305 304 302 300 299 298 297 297 296

GFSSGP_sfc_thetae_069.txt.gz
Theta_e
316 314 306 304 290 287 283 287 292 294 294 307 312 307 309 312 311 304 327 330 333 344 345 347 347 348 347 347 347 347 348 349 348 347 346 346 345 344 343 342 341 343 343 341 340 339 339 338 336
313 311 306 295 286 280 283 289 290 294 302 311 312 313 314 310 319 322 323 330 330 334 343 345 346 346 345 345 345 346 347 348 348 347 346 345 344 343 342 340 340 342 342 340 339 338 337 337 338
311 311 299 291 283 282 284 291 292 304 310 310 307 313 314 312 322 323 328 336 334 330 329 343 345 344 344 342 342 341 343 346 346 346 345 344 344 343 341 339 339 341 341 338 335 332 334 335 337
305 300 295 288 284 289 291 296 297 300 309 309 311 306 313 323 328 331 333 335 335 332 329 333 340 341 341 341 342 343 342 344 345 344 344 344 344 342 340 338 338 340 339 334 330 332 335 334 333
303 295 287 284 286 290 294 296 298 305 306 308 310 305 309 323 327 328 329 334 335 330 333 334 332 330 330 331 338 343 341 343 344 344 343 343 342 341 339 337 336 337 336 331 331 335 334 333 331
296 293 286 283 287 293 295 302 309 308 307 309 307 308 310 320 320 325 330 335 334 331 333 330 330 328 329 328 332 338 337 342 343 342 341 341 340 339 337 336 334 333 332 330 331 333 333 331 330
294 290 285 285 288 291 294 307 305 305 304 306 310 305 310 315 320 326 329 330 329 328 328 327 326 327 327 328 328 336 334 339 340 340 339 339 337 336 335 334 332 331 329 329 328 329 332 330 329
295 291 286 287 288 289 296 307 308 306 305 315 313 306 306 313 324 329 327 327 327 328 326 325 326 324 324 324 327 331 332 338 338 338 337 336 335 334 333 331 330 328 327 328 327 327 328 330 327
294 288 285 288 288 291 299 301 307 311 310 313 317 315 316 321 326 325 325 325 324 325 327 325 324 323 324 324 325 324 326 337 336 337 335 331 329 327 324 327 328 327 327 326 325 324 328 327 326
292 286 289 294 293 295 302 304 308 305 303 307 310 315 319 323 319 317 319 320 322 321 323 324 323 323 323 325 324 321 324 329 332 331 330 327 324 323 324 327 327 326 325 325 325 321 321 321 318
292 290 294 297 298 296 301 303 308 304 300 304 305 309 317 318 318 316 316 318 318 322 322 322 323 323 323 321 322 323 325 327 327 327 326 324 324 324 322 319 317 316 316 312 312 308 306 305 308
291 296 296 297 298 299 301 304 304 302 305 310 307 315 318 317 315 315 315 317 318 321 320 321 323 322 322 321 319 321 325 326 325 326 325 323 321 319 317 315 312 310 311 311 308 306 304 303 306
294 296 298 299 300 300 307 305 304 304 310 313 313 319 316 316 314 315 314 316 318 319 320 320 321 321 321 320 320 322 322 323 325 325 323 321 318 316 314 311 309 310 310 310 308 305 304 302 302
297 298 299 299 299 305 304 303 303 305 310 313 317 315 315 313 312 312 314 313 316 317 319 320 320 320 320 319 319 322 322 322 323 323 321 320 317 315 312 309 309 310 310 310 308 306 304 302 302
299 295 296 297 297 299 304 298 300 305 310 310 316 315 313 313 311 310 312 314 315 315 317 318 319 320 319 318 319 321 322 323 322 321 319 318 317 314 311 310 310 310 311 310 308 306 305 302 302
294 293 288 295 297 299 299 291 299 306 308 310 312 314 313 311 311 308 312 315 315 315 316 318 320 319 319 318 318 319 319 321 321 320 319 317 317 315 312 311 312 312 312 311 309 307 306 303 302
290 284 288 292 296 297 296 293 299 305 308 309 309 311 311 308 308 309 314 315 315 315 316 317 318 318 318 318 317 316 315 318 320 321 319 317 317 317 314 314 313 314 313 311 310 309 307 304 303
285 287 286 288 293 297 296 296 300 303 304 305 306 307 307 307 307 310 310 314 315 315 316 316 317 317 316 316 316 314 315 315 317 320 319 320 318 319 317 316 316 315 314 312 311 309 308 306 305
292 290 288 292 296 296 295 296 298 301 301 302 302 305 307 308 309 309 309 311 313 315 314 314 315 315 315 315 315 313 311 312 315 316 319 319 320 321 318 318 317 315 314 312 311 309 308 307 307
292 290 289 293 296 296 294 295 297 300 302 303 303 303 306 307 307 308 308 309 311 314 314 314 313 313 314 314 314 314 311 312 314 315 316 318 319 319 319 317 317 315 313 313 311 309 307 307 307
292 290 290 290 294 296 292 291 294 300 303 304 307 306 309 308 307 308 308 308 309 312 313 311 312 311 311 310 312 311 311 312 312 313 314 314 317 319 319 319 319 317 315 313 311 311 310 308 309
289 295 295 293 290 286 292 283 290 296 299 303 304 306 308 309 310 309 308 307 307 308 310 311 311 310 310 310 308 308 309 307 308 308 310 311 316 319 320 319 320 319 318 316 314 314 310 309 307
293 297 295 294 290 287 288 284 288 295 297 300 303 305 308 310 311 309 308 308 308 308 309 310 311 311 311 310 309 307 306 308 308 309 310 311 313 317 319 320 318 318 319 318 315 311 311 311 308
299 296 294 292 289 283 288 286 286 290 296 299 304 305 308 311 312 311 311 309 308 307 308 310 311 311 312 311 310 308 308 308 309 310 312 313 313 315 318 320 320 319 318 316 316 314 311 310 307
295 290 283 281 281 282 290 286 288 294 296 300 301 305 307 311 311 311 310 308 308 307 307 309 310 310 311 311 310 309 309 309 310 311 312 312 313 313 317 320 320 318 318 316 313 311 311 308 308
292 291 283 280 279 282 290 286 291 298 301 301 301 305 308 310 311 312 312 311 309 309 309 309 310 310 311 311 311 311 310 310 312 313 314 313 314 315 317 319 320 318 316 316 313 313 310 309 309
292 288 294 287 286 283 286 290 295 298 299 299 302 305 306 308 311 312 313 312 311 310 310 310 310 311 311 311 311 311 311 312 313 315 316 316 315 315 316 317 317 317 317 317 315 312 308 307 306
295 297 287 287 281 280 284 286 287 294 296 297 298 305 307 309 311 312 313 313 312 312 311 311 311 311 311 312 312 312 312 314 315 316 314 315 316 319 318 317 317 316 316 312 311 308 305 305 302
291 291 291 291 287 282 280 284 293 296 298 297 296 302 307 308 311 313 313 313 313 313 311 311 311 311 311 312 312 312 312 315 316 317 316 316 319 319 319 319 317 316 312 311 308 305 303 302 300
295 293 292 285 284 286 283 287 296 298 299 299 299 300 301 308 310 311 314 315 313 312 312 311 312 313 314 314 314 314 314 315 316 317 318 319 320 320 319 318 315 311 309 307 306 302 302 300 299

GFSSGP_sfc_thetae_072.txt.gz
Theta_e
314 310 306 300 288 286 282 286 290 291 292 303 311 306 305 309 308 300 325 330 334 343 345 346 346 347 348 348 348 348 348 349 348 348 347 347 346 345 344 344 343 343 343 340 339 338 338 338 337
312 309 304 293 285 280 283 287 289 293 297 308 312 312 311 309 316 321 324 331 332 338 341 343 345 346 347 347 347 348 349 348 348 347 346 346 345 344 343 343 342 342 343 339 338 339 338 336 335
310 309 297 288 282 281 283 289 292 296 308 308 306 312 313 311 320 321 330 334 336 332 333 341 344 343 345 346 346 347 347 346 346 345 346 345 344 343 343 342 341 342 343 341 341 340 337 335 335
303 299 293 288 284 288 289 293 294 295 304 308 309 305 312 321 326 327 330 332 332 334 332 334 336 336 339 341 338 341 345 345 344 344 345 344 343 342 342 341 341 341 340 337 337 338 338 335 333
300 293 286 284 285 289 292 294 301 301 303 305 308 302 308 321 325 326 327 331 332 333 331 332 332 331 332 334 334 332 341 343 343 343 343 342 342 341 340 340 339 337 335 335 337 336 334 333 331
295 292 285 282 286 291 293 295 307 306 305 307 305 305 307 318 319 324 329 332 332 332 331 327 331 331 331 330 329 332 337 341 342 342 342 342 340 338 339 338 336 334 336 337 336 334 332 331 330
293 289 285 283 287 289 293 304 304 304 302 304 308 304 307 310 318 328 329 329 329 328 325 324 327 328 329 328 328 333 336 338 339 339 340 339 337 336 336 335 334 333 335 336 334 332 330 330 328
294 290 285 285 286 288 294 306 307 304 302 312 311 303 304 312 325 328 328 326 326 326 325 325 326 324 324 325 327 330 335 337 337 337 337 336 335 334 333 331 331 331 333 334 333 331 330 329 327
293 288 284 286 287 291 296 300 305 308 308 310 313 313 314 319 325 326 324 324 324 324 324 325 324 323 323 323 324 329 334 335 335 335 335 332 330 327 323 325 328 328 329 331 332 330 328 327 326
292 286 288 292 292 293 296 301 304 304 303 304 308 312 319 321 323 322 321 321 321 322 323 324 323 323 321 324 320 328 331 330 331 331 329 328 324 320 324 325 327 327 327 329 330 329 327 323 319
290 289 292 295 295 295 293 300 307 304 299 302 304 307 317 320 320 319 320 322 321 322 323 323 322 323 322 320 319 324 326 330 329 327 325 323 322 322 320 318 317 316 318 315 321 318 312 314 313
289 294 294 296 295 296 297 302 304 302 303 309 304 313 316 318 317 317 317 318 319 321 321 322 322 322 321 322 318 321 325 327 325 326 323 322 320 317 315 312 309 309 308 306 308 309 307 308 310
292 294 295 298 298 297 302 302 303 303 308 313 311 316 315 316 317 317 317 318 319 320 320 321 322 322 320 320 320 321 324 325 326 324 322 320 317 314 313 309 310 309 308 307 305 306 307 307 308
295 295 296 297 297 299 302 300 303 303 309 313 313 314 314 314 315 313 314 315 317 320 320 321 321 321 320 318 319 321 323 325 325 323 320 318 316 313 311 309 309 309 309 307 306 304 304 303 304
296 293 294 293 294 295 302 297 299 305 309 310 314 314 313 313 311 313 314 313 316 317 319 320 320 321 320 318 319 320 322 324 324 322 319 317 315 313 311 309 309 310 310 309 306 304 301 300 301
292 291 286 292 295 297 299 290 296 302 306 306 310 313 312 311 310 308 313 313 315 316 318 319 321 319 319 318 320 321 322 322 321 319 318 316 315 313 311 310 310 312 312 309 307 304 302 301 300
288 283 286 290 294 296 294 292 295 303 305 305 308 310 311 312 310 308 312 314 315 316 317 318 319 318 318 318 318 318 320 321 321 319 317 316 315 314 312 312 312 313 312 310 309 307 306 303 302
285 285 285 286 290 292 291 294 299 301 304 305 306 306 312 311 308 308 311 312 314 316 317 318 318 318 318 317 315 316 317 320 320 318 316 316 316 315 314 313 314 314 312 311 310 308 308 306 304
289 288 287 288 293 291 291 291 296 297 300 300 302 304 306 307 308 308 310 314 313 313 315 316 316 316 316 315 313 314 314 317 318 319 318 317 317 316 315 315 316 315 313 312 310 309 308 308 306
290 288 287 291 294 292 291 292 296 297 299 301 301 301 305 306 306 307 310 310 313 312 314 314 315 315 316 316 316 316 313 313 315 317 319 319 319 319 318 317 317 316 314 311 311 310 307 308 306
290 289 288 289 291 292 290 290 292 296 299 302 303 303 305 307 306 306 307 308 311 312 313 313 314 315 316 317 315 312 312 313 312 314 314 316 318 319 320 318 317 315 313 312 311 310 309 307 308
287 292 292 290 288 284 290 282 289 293 295 300 302 304 304 307 308 307 307 307 308 311 312 313 313 313 312 310 312 311 311 310 312 313 312 314 317 317 318 317 317 316 315 313 312 312 311 311 307
290 294 292 291 288 286 286 283 287 291 294 296 300 303 305 307 308 307 307 308 308 308 312 310 310 310 309 309 311 309 309 311 308 309 310 310 312 315 315 317 317 317 317 315 315 313 311 312 309
297 293 292 290 288 281 287 285 284 288 294 296 299 302 304 306 309 309 309 308 308 309 308 309 309 309 310 309 308 308 307 306 306 306 307 308 310 311 313 315 316 317 317 316 316 316 313 312 312
293 289 282 280 280 281 288 285 289 293 295 297 298 300 303 306 309 308 307 306 306 306 308 310 309 309 310 309 309 308 308 307 307 307 307 307 308 309 311 313 315 316 317 317 316 315 313 310 309
291 289 282 279 278 282 289 284 290 297 299 299 299 299 301 305 309 309 309 307 307 306 307 309 309 309 310 310 309 309 308 308 308 308 309 309 310 309 312 313 315 314 315 313 313 311 312 312 312
291 286 292 285 284 282 286 289 294 296 297 298 297 300 300 303 308 310 310 309 308 307 307 308 309 310 310 310 311 309 309 308 308 309 310 311 311 312 311 312 314 315 316 315 314 314 312 310 309
293 294 286 285 280 279 283 284 286 293 295 297 296 301 302 303 308 309 311 311 310 309 309 309 310 310 310 310 311 310 310 309 309 310 311 313 314 312 313 313 313 314 314 315 316 317 314 311 307
290 289 289 289 285 281 279 283 292 294 296 296 296 296 303 304 306 310 311 312 312 311 310 309 310 311 310 310 310 310 310 311 312 312 313 314 314 314 316 316 316 317 317 315 312 312 308 308 304
292 291 291 285 283 285 283 286 295 296 297 298 299 299 298 306 306 309 310 311 312 311 310 310 310 311 312 311 311 311 311 312 312 313 313 315 315 316 317 318 317 317 315 310 310 306 306 306 303

GFSSGP_sfc_thetae_075.txt.gz
Theta_e
321 313 315 308 299 296 292 293 297 297 298 305 315 311 310 313 311 306 331 335 338 346 347 347 347 348 348 349 350 350 350 350 349 349 348 349 348 348 347 346 345 345 345 342 342 341 341 339 338
316 313 310 302 295 292 294 294 295 299 302 313 317 315 315 312 321 324 330 336 336 344 347 346 346 347 348 348 348 349 350 350 349 349 348 348 347 346 346 344 343 343 343 339 339 339 339 338 337
316 311 307 298 293 293 294 296 299 300 304 311 310 316 317 315 323 325 333 334 336 334 343 345 345 344 344 345 347 348 348 347 347 347 347 347 346 345 344 342 342 342 342 340 338 338 337 336 336
309 308 301 297 293 295 296 300 300 299 304 312 313 310 316 324 327 331 333 334 336 335 338 339 339 340 339 340 343 344 346 345 345 345 346 346 345 345 343 341 341 341 341 340 338 336 334 334 333
307 303 296 294 293 295 298 299 301 304 307 309 313 308 312 324 329 328 331 334 335 335 336 336 337 338 338 336 335 335 342 342 343 344 344 343 344 343 342 341 340 341 342 341 339 335 333 332 332
304 301 295 292 293 296 299 301 308 309 309 310 309 309 312 324 324 328 333 333 336 334 334 335 337 337 336 334 333 333 337 338 340 341 342 342 342 340 341 340 338 337 338 339 339 334 332 331 330
302 299 294 292 293 295 298 308 308 308 308 308 312 307 312 318 325 331 330 331 333 332 332 332 333 335 334 332 332 333 336 338 339 340 339 339 338 338 339 337 336 337 338 337 336 333 331 330 329
302 300 293 293 293 295 299 308 310 308 306 315 315 308 309 316 327 330 328 328 328 327 327 329 330 330 329 330 329 332 335 336 337 338 338 336 336 337 335 334 336 338 337 335 333 331 330 329 328
301 297 293 294 293 297 300 303 309 313 310 312 315 316 318 324 328 326 325 324 324 325 326 327 326 327 328 329 329 332 336 336 336 337 335 333 334 334 331 330 334 336 334 333 331 330 329 327 326
300 296 296 298 298 299 300 301 303 308 309 310 312 318 322 324 325 323 322 322 323 322 324 327 329 327 326 327 328 330 331 335 334 333 331 330 330 328 326 329 331 334 332 331 330 329 327 325 323
298 296 298 299 301 300 300 302 308 307 304 309 308 312 318 321 323 323 323 323 323 325 325 325 324 324 324 326 325 328 330 330 330 329 328 325 327 327 325 324 327 331 332 328 326 326 323 323 322
296 299 299 300 301 300 300 306 306 309 307 312 312 317 318 320 320 320 321 322 324 324 324 325 324 324 326 323 324 327 325 328 327 326 325 325 323 321 319 319 320 324 329 329 326 323 323 320 320
296 299 299 300 300 300 303 303 304 306 311 314 316 317 317 319 319 320 320 321 322 322 323 323 324 323 323 324 323 327 326 324 324 324 323 323 318 316 316 316 316 317 320 322 320 320 320 319 319
299 298 299 301 301 301 301 302 306 308 311 313 316 317 317 318 320 318 317 318 320 323 322 323 323 323 322 321 322 325 325 323 324 323 321 320 316 314 313 313 313 314 317 318 318 319 319 318 318
300 297 298 299 300 299 305 300 303 309 312 313 314 317 318 318 319 316 316 316 318 320 322 322 324 322 321 320 322 324 325 324 322 322 322 320 316 315 315 315 315 315 314 313 314 317 318 317 316
297 296 292 296 300 301 303 296 302 305 309 310 315 316 317 316 318 318 317 316 318 318 320 322 323 321 319 320 323 323 324 325 322 321 320 319 316 317 316 317 316 316 315 313 311 311 312 313 313
293 289 290 293 298 301 301 297 303 308 308 308 311 315 317 316 316 316 317 316 316 317 320 320 321 319 319 320 324 323 322 322 320 319 318 318 317 318 318 318 318 318 316 315 312 310 311 309 310
289 290 291 292 297 298 296 297 302 303 306 307 310 312 316 316 314 316 316 317 315 318 319 320 319 319 319 321 321 320 320 321 320 318 316 316 316 316 317 316 315 317 316 315 314 313 314 311 309
293 291 291 294 296 295 295 295 299 302 305 306 308 311 313 315 317 316 315 316 315 317 318 318 318 318 318 318 318 318 318 319 319 318 317 317 315 317 315 315 316 319 318 317 317 316 315 313 312
294 292 292 294 296 296 296 295 300 302 303 306 307 308 312 313 313 313 313 315 314 314 316 317 317 317 318 318 321 320 318 320 320 319 317 317 316 316 316 319 320 319 320 318 317 317 315 316 313
293 292 292 291 294 296 295 294 298 302 303 305 307 309 310 313 311 309 311 310 314 312 313 315 316 317 318 318 316 315 316 317 317 317 317 317 317 317 318 320 321 322 322 320 318 317 317 314 314
290 295 294 293 291 287 296 287 295 299 300 302 305 308 309 311 314 312 309 309 311 314 315 318 317 317 318 318 316 315 313 312 315 317 317 318 318 319 321 321 321 323 322 322 321 319 319 318 315
293 296 294 294 291 290 291 289 293 295 298 302 304 307 310 311 313 312 311 310 311 314 315 316 317 317 317 319 319 315 315 316 318 316 316 318 318 318 320 321 323 323 323 323 322 319 318 320 318
298 295 294 294 292 286 291 291 291 295 298 301 303 306 309 311 313 314 314 313 311 313 315 314 316 317 316 317 318 318 315 316 314 314 314 315 317 318 320 321 323 324 325 324 324 323 321 320 315
296 293 286 285 285 284 292 289 293 299 300 301 303 305 307 311 312 313 312 311 310 310 312 311 314 314 315 315 317 317 316 316 315 316 317 316 316 316 319 320 322 323 324 324 324 324 321 320 320
293 292 287 281 283 286 290 287 293 301 303 303 304 306 306 309 313 313 313 313 311 310 311 310 311 314 315 315 315 317 317 316 316 316 315 316 317 318 319 320 321 322 323 324 324 324 324 323 322
293 290 296 288 289 287 290 294 298 302 302 303 303 304 306 307 312 313 314 314 313 312 312 312 313 314 315 316 315 315 316 316 316 317 318 319 318 318 318 320 320 322 322 323 324 323 323 323 320
296 298 289 290 282 281 287 289 291 297 300 301 303 304 304 308 311 313 314 314 314 314 314 314 315 315 315 316 316 315 315 316 317 318 317 317 319 319 319 319 320 320 322 323 323 322 322 319 315
293 292 293 293 290 285 283 288 298 299 301 302 304 305 305 308 311 314 315 315 315 315 314 313 314 315 315 316 316 316 316 316 316 315 315 317 319 319 318 318 319 320 321 321 320 320 320 317 316
296 294 294 288 286 288 288 289 300 302 303 303 304 305 307 306 311 313 315 316 315 314 314 313 314 315 317 316 316 316 316 316 315 315 316 318 318 319 319 320 319 319 317 317 317 316 315 313 310